| time (UTC) | temp F | wind direction | speed MPH | gust MPH | rain 1hr in | rain 24hr in | rain mn in | humidity % | barometer mb |
| 20260905232032 | 87 | 96 | 6.0 | 0.0 | 0.00 | 0.00 | 0.00 | 55 | 1009.0 |
| 20260905231933 | 87 | 93 | 6.0 | 0.0 | 0.00 | 0.00 | 0.00 | 55 | 1009.0 |
| 20260905231854 | 87 | 93 | 6.0 | 0.0 | 0.00 | 0.00 | 0.00 | 54 | 1009.0 |
| 20260905231728 | 87 | 134 | 6.0 | 0.0 | 0.00 | 0.00 | 0.00 | 55 | 1009.0 |
| 20260905231641 | 87 | 116 | 5.0 | 0.0 | 0.00 | 0.00 | 0.00 | 55 | 1009.0 |
| 20260905231526 | 87 | 106 | 5.0 | 0.0 | 0.00 | 0.00 | 0.00 | 55 | 1009.0 |
| 20260905231426 | 87 | 117 | 5.0 | 0.0 | 0.00 | 0.00 | 0.00 | 55 | 1009.0 |
| 20260905231327 | 87 | 116 | 5.0 | 0.0 | 0.00 | 0.00 | 0.00 | 55 | 1009.0 |
| 20260905231228 | 87 | 121 | 5.0 | 0.0 | 0.00 | 0.00 | 0.00 | 55 | 1009.9 |
| 20260905231149 | 87 | 123 | 5.0 | 0.0 | 0.00 | 0.00 | 0.00 | 54 | 1009.9 |
| 20260905231033 | 87 | 127 | 5.0 | 0.0 | 0.00 | 0.00 | 0.00 | 54 | 1009.9 |
| 20260905230935 | 87 | 126 | 6.0 | 11.0 | 0.00 | 0.00 | 0.00 | 53 | 1009.9 |
| 20260905230834 | 88 | 131 | 4.0 | 11.0 | 0.00 | 0.00 | 0.00 | 52 | 1009.9 |
| 20260905230752 | 88 | 131 | 5.0 | 11.0 | 0.00 | 0.00 | 0.00 | 53 | 1009.9 |
| 20260905230630 | 88 | 131 | 4.0 | 11.0 | 0.00 | 0.00 | 0.00 | 53 | 1009.9 |
| 20260905230532 | 88 | 126 | 7.0 | 11.0 | 0.00 | 0.00 | 0.00 | 53 | 1009.9 |
| 20260905230431 | 88 | 127 | 5.0 | 14.0 | 0.00 | 0.00 | 0.00 | 53 | 1009.9 |
| 20260905230350 | 88 | 131 | 6.0 | 14.0 | 0.00 | 0.00 | 0.00 | 53 | 1009.9 |
| 20260905230243 | 88 | 130 | 6.0 | 14.0 | 0.00 | 0.00 | 0.00 | 52 | 1009.9 |
| 20260905230154 | 88 | 119 | 7.0 | 14.0 | 0.00 | 0.00 | 0.00 | 52 | 1009.9 |
| 20260905230031 | 89 | 110 | 8.0 | 14.0 | 0.00 | 0.00 | 0.00 | 51 | 1009.9 |
| 20260905225929 | 89 | 114 | 8.0 | 14.0 | 0.00 | 0.00 | 0.00 | 52 | 1009.9 |
| 20260905225849 | 89 | 116 | 7.0 | 14.0 | 0.00 | 0.00 | 0.00 | 52 | 1009.9 |
| 20260905225728 | 89 | 113 | 7.0 | 14.0 | 0.00 | 0.00 | 0.00 | 51 | 1009.7 |
| 20260905225628 | 89 | 112 | 10.0 | 14.0 | 0.00 | 0.00 | 0.00 | 51 | 1009.7 |
| 20260905225527 | 89 | 114 | 8.0 | 13.0 | 0.00 | 0.00 | 0.00 | 51 | 1009.7 |
| 20260905225428 | 90 | 82 | 7.0 | 11.0 | 0.00 | 0.00 | 0.00 | 51 | 1009.7 |
| 20260905225328 | 90 | 88 | 7.0 | 11.0 | 0.00 | 0.00 | 0.00 | 53 | 1009.7 |
| 20260905225227 | 90 | 104 | 7.0 | 10.0 | 0.00 | 0.00 | 0.00 | 52 | 1009.7 |
| 20260905225125 | 90 | 113 | 5.0 | 10.0 | 0.00 | 0.00 | 0.00 | 52 | 1009.7 |
| 20260905225024 | 90 | 109 | 2.0 | 10.0 | 0.00 | 0.00 | 0.00 | 51 | 1009.7 |
| 20260905224943 | 90 | 150 | 3.0 | 10.0 | 0.00 | 0.00 | 0.00 | 51 | 1009.7 |
| 20260905224825 | 90 | 148 | 4.0 | 10.0 | 0.00 | 0.00 | 0.00 | 51 | 1009.7 |
| 20260905224745 | 90 | 145 | 6.0 | 10.0 | 0.00 | 0.00 | 0.00 | 50 | 1009.7 |
| 20260905224655 | 90 | 112 | 7.0 | 10.0 | 0.00 | 0.00 | 0.00 | 52 | 1009.7 |
| 20260905224532 | 90 | 145 | 5.0 | 9.0 | 0.00 | 0.00 | 0.00 | 51 | 1009.7 |
| 20260905224430 | 90 | 112 | 6.0 | 8.0 | 0.00 | 0.00 | 0.00 | 54 | 1009.7 |
| 20260905224330 | 90 | 32 | 3.0 | 5.0 | 0.00 | 0.00 | 0.00 | 53 | 1009.7 |
| 20260905224229 | 90 | 30 | 1.0 | 3.0 | 0.00 | 0.00 | 0.00 | 52 | 1009.9 |
| 20260905224149 | 90 | 24 | 1.0 | 3.0 | 0.00 | 0.00 | 0.00 | 50 | 1009.9 |
| 20260905224030 | 90 | 30 | 2.0 | 3.0 | 0.00 | 0.00 | 0.00 | 52 | 1009.9 |
| 20260905223931 | 90 | 30 | 1.0 | 5.0 | 0.00 | 0.00 | 0.00 | 51 | 1009.9 |
| 20260905223829 | 90 | 30 | 1.0 | 5.0 | 0.00 | 0.00 | 0.00 | 50 | 1009.9 |
| 20260905223747 | 90 | 30 | 1.0 | 5.0 | 0.00 | 0.00 | 0.00 | 50 | 1009.9 |
| 20260905223644 | 90 | 31 | 2.0 | 5.0 | 0.00 | 0.00 | 0.00 | 50 | 1009.9 |
| 20260905223543 | 90 | 31 | 1.0 | 5.0 | 0.00 | 0.00 | 0.00 | 50 | 1009.9 |
| 20260905223443 | 90 | 31 | 2.0 | 5.0 | 0.00 | 0.00 | 0.00 | 51 | 1009.9 |
| 20260905223342 | 90 | 31 | 2.0 | 5.0 | 0.00 | 0.00 | 0.00 | 50 | 1009.9 |
| 20260905223244 | 90 | 32 | 1.0 | 5.0 | 0.00 | 0.00 | 0.00 | 50 | 1009.9 |
| 20260905223215 | 90 | 32 | 1.0 | 5.0 | 0.00 | 0.00 | 0.00 | 50 | 1009.9 |
| 20260905223052 | 90 | 35 | 2.0 | 5.0 | 0.00 | 0.00 | 0.00 | 49 | 1009.9 |
| 20260905222928 | 90 | 322 | 1.0 | 3.0 | 0.00 | 0.00 | 0.00 | 48 | 1009.9 |
| 20260905222847 | 90 | 318 | 3.0 | 3.0 | 0.00 | 0.00 | 0.00 | 48 | 1009.9 |
| 20260905222743 | 90 | 319 | 3.0 | 3.0 | 0.00 | 0.00 | 0.00 | 48 | 1009.8 |
| 20260905222642 | 90 | 319 | 2.0 | 3.0 | 0.00 | 0.00 | 0.00 | 48 | 1009.8 |
| 20260905222541 | 90 | 320 | 2.0 | 3.0 | 0.00 | 0.00 | 0.00 | 48 | 1009.8 |
| 20260905222439 | 90 | 316 | 2.0 | 3.0 | 0.00 | 0.00 | 0.00 | 49 | 1009.8 |
| 20260905222342 | 90 | 318 | 2.0 | 3.0 | 0.00 | 0.00 | 0.00 | 49 | 1009.8 |
| 20260905222240 | 90 | 319 | 2.0 | 3.0 | 0.00 | 0.00 | 0.00 | 49 | 1009.8 |
| 20260905222139 | 90 | 319 | 1.0 | 3.0 | 0.00 | 0.00 | 0.00 | 49 | 1009.8 |
| 20260905222037 | 90 | 319 | 2.0 | 3.0 | 0.00 | 0.00 | 0.00 | 49 | 1009.8 |
| 20260905221937 | 90 | 316 | 2.0 | 3.0 | 0.00 | 0.00 | 0.00 | 49 | 1009.8 |
| 20260905221855 | 90 | 319 | 2.0 | 6.0 | 0.00 | 0.00 | 0.00 | 49 | 1009.8 |
| 20260905221733 | 90 | 316 | 1.0 | 6.0 | 0.00 | 0.00 | 0.00 | 49 | 1009.8 |
| 20260905221706 | 90 | 318 | 1.0 | 6.0 | 0.00 | 0.00 | 0.00 | 49 | 1009.8 |
| 20260905221605 | 90 | 319 | 0.0 | 6.0 | 0.00 | 0.00 | 0.00 | 48 | 1009.8 |
| 20260905221503 | 90 | 318 | 1.0 | 6.0 | 0.00 | 0.00 | 0.00 | 48 | 1009.8 |
| 20260905221341 | 90 | 318 | 1.0 | 6.0 | 0.00 | 0.00 | 0.00 | 48 | 1009.8 |
| 20260905221239 | 90 | 318 | 2.0 | 6.0 | 0.00 | 0.00 | 0.00 | 48 | 1009.9 |
| 20260905221158 | 91 | 318 | 1.0 | 6.0 | 0.00 | 0.00 | 0.00 | 48 | 1009.9 |
| 20260905221035 | 91 | 323 | 2.0 | 6.0 | 0.00 | 0.00 | 0.00 | 48 | 1009.9 |
| 20260905220953 | 91 | 323 | 5.0 | 7.0 | 0.00 | 0.00 | 0.00 | 47 | 1009.9 |
| 20260905220831 | 91 | 332 | 5.0 | 7.0 | 0.00 | 0.00 | 0.00 | 48 | 1009.9 |
| 20260905220733 | 91 | 332 | 4.0 | 8.0 | 0.00 | 0.00 | 0.00 | 48 | 1009.9 |
| 20260905220633 | 91 | 325 | 3.0 | 8.0 | 0.00 | 0.00 | 0.00 | 48 | 1009.9 |
| 20260905220532 | 91 | 318 | 4.0 | 8.0 | 0.00 | 0.00 | 0.00 | 49 | 1009.9 |
| 20260905220432 | 91 | 312 | 2.0 | 8.0 | 0.00 | 0.00 | 0.00 | 49 | 1009.9 |
| 20260905220331 | 91 | 312 | 0.0 | 8.0 | 0.00 | 0.00 | 0.00 | 48 | 1009.9 |
| 20260905220229 | 91 | 312 | 1.0 | 8.0 | 0.00 | 0.00 | 0.00 | 48 | 1009.9 |
| 20260905220200 | 91 | 312 | 4.0 | 8.0 | 0.00 | 0.00 | 0.00 | 48 | 1009.9 |
| 20260905220042 | 91 | 342 | 6.0 | 8.0 | 0.00 | 0.00 | 0.00 | 49 | 1009.9 |
| 20260905215939 | 91 | 328 | 5.0 | 8.0 | 0.00 | 0.00 | 0.00 | 49 | 1009.9 |
| 20260905215838 | 91 | 326 | 6.0 | 7.0 | 0.00 | 0.00 | 0.00 | 48 | 1009.9 |
| 20260905215738 | 91 | 340 | 5.0 | 7.0 | 0.00 | 0.00 | 0.00 | 49 | 1009.9 |
| 20260905215636 | 91 | 337 | 3.0 | 7.0 | 0.00 | 0.00 | 0.00 | 49 | 1009.9 |
| 20260905215534 | 91 | 339 | 3.0 | 7.0 | 0.00 | 0.00 | 0.00 | 48 | 1009.9 |
| 20260905215438 | 91 | 354 | 1.0 | 6.0 | 0.00 | 0.00 | 0.00 | 48 | 1009.9 |
| 20260905215338 | 91 | 353 | 2.0 | 6.0 | 0.00 | 0.00 | 0.00 | 48 | 1009.9 |
| 20260905215235 | 91 | 357 | 2.0 | 6.0 | 0.00 | 0.00 | 0.00 | 48 | 1009.9 |
| 20260905215133 | 91 | 357 | 3.0 | 6.0 | 0.00 | 0.00 | 0.00 | 48 | 1009.9 |
| 20260905215031 | 91 | 354 | 3.0 | 6.0 | 0.00 | 0.00 | 0.00 | 48 | 1009.9 |
| 20260905214929 | 91 | 356 | 4.0 | 6.0 | 0.00 | 0.00 | 0.00 | 48 | 1009.9 |
| 20260905214828 | 91 | 322 | 2.0 | 6.0 | 0.00 | 0.00 | 0.00 | 47 | 1009.9 |
| 20260905214730 | 91 | 326 | 2.0 | 6.0 | 0.00 | 0.00 | 0.00 | 47 | 1009.9 |
| 20260905214700 | 91 | 360 | 1.0 | 6.0 | 0.00 | 0.00 | 0.00 | 47 | 1009.9 |
| 20260905214558 | 91 | 359 | 2.0 | 6.0 | 0.00 | 0.00 | 0.00 | 47 | 1009.9 |
| 20260905214456 | 91 | 360 | 3.0 | 6.0 | 0.00 | 0.00 | 0.00 | 49 | 1009.9 |
| 20260905214333 | 91 | 16 | 3.0 | 6.0 | 0.00 | 0.00 | 0.00 | 48 | 1009.9 |
| 20260905214231 | 91 | 16 | 2.0 | 5.0 | 0.00 | 0.00 | 0.00 | 48 | 1010.0 |
| 20260905214130 | 91 | 16 | 3.0 | 5.0 | 0.00 | 0.00 | 0.00 | 47 | 1010.0 |
| 20260905214031 | 91 | 17 | 0.0 | 4.0 | 0.00 | 0.00 | 0.00 | 47 | 1010.0 |
| 20260905213933 | 91 | 14 | 0.0 | 6.0 | 0.00 | 0.00 | 0.00 | 47 | 1010.0 |
| 20260905213831 | 91 | 17 | 0.0 | 7.0 | 0.00 | 0.00 | 0.00 | 47 | 1010.0 |
| 20260905213730 | 91 | 17 | 0.0 | 7.0 | 0.00 | 0.00 | 0.00 | 48 | 1010.0 |
| 20260905213632 | 91 | 14 | 2.0 | 7.0 | 0.00 | 0.00 | 0.00 | 49 | 1010.0 |
| 20260905213551 | 91 | 14 | 1.0 | 7.0 | 0.00 | 0.00 | 0.00 | 47 | 1010.0 |
| 20260905213428 | 91 | 14 | 1.0 | 7.0 | 0.00 | 0.00 | 0.00 | 46 | 1010.0 |
| 20260905213327 | 91 | 16 | 2.0 | 7.0 | 0.00 | 0.00 | 0.00 | 46 | 1010.0 |
| 20260905213241 | 91 | 16 | 3.0 | 7.0 | 0.00 | 0.00 | 0.00 | 46 | 1010.0 |
| 20260905213153 | 91 | 16 | 5.0 | 7.0 | 0.00 | 0.00 | 0.00 | 46 | 1010.0 |
| 20260905213029 | 91 | 18 | 5.0 | 7.0 | 0.00 | 0.00 | 0.00 | 47 | 1010.0 |
| 20260905212928 | 91 | 16 | 3.0 | 7.0 | 0.00 | 0.00 | 0.00 | 47 | 1010.0 |
| 20260905212847 | 91 | 17 | 6.0 | 7.0 | 0.00 | 0.00 | 0.00 | 48 | 1010.0 |
| 20260905212725 | 91 | 20 | 3.0 | 7.0 | 0.00 | 0.00 | 0.00 | 48 | 1009.9 |
| 20260905212624 | 91 | 357 | 4.0 | 7.0 | 0.00 | 0.00 | 0.00 | 48 | 1009.9 |
| 20260905212542 | 91 | 10 | 2.0 | 7.0 | 0.00 | 0.00 | 0.00 | 48 | 1009.9 |
| 20260905212440 | 91 | 11 | 2.0 | 7.0 | 0.00 | 0.00 | 0.00 | 48 | 1009.9 |
| 20260905212341 | 91 | 328 | 2.0 | 7.0 | 0.00 | 0.00 | 0.00 | 49 | 1009.9 |
| 20260905212300 | 91 | 329 | 2.0 | 7.0 | 0.00 | 0.00 | 0.00 | 47 | 1009.9 |
| 20260905212139 | 91 | 330 | 0.0 | 7.0 | 0.00 | 0.00 | 0.00 | 47 | 1009.9 |
| 20260905212057 | 91 | 329 | 2.0 | 7.0 | 0.00 | 0.00 | 0.00 | 47 | 1009.9 |
| 20260905211935 | 91 | 330 | 3.0 | 7.0 | 0.00 | 0.00 | 0.00 | 47 | 1009.9 |
| 20260905211854 | 91 | 360 | 2.0 | 7.0 | 0.00 | 0.00 | 0.00 | 47 | 1009.9 |
| 20260905211753 | 91 | 3 | 5.0 | 7.0 | 0.00 | 0.00 | 0.00 | 46 | 1009.9 |
| 20260905211702 | 91 | 360 | 4.0 | 7.0 | 0.00 | 0.00 | 0.00 | 45 | 1009.9 |
| 20260905211540 | 91 | 25 | 2.0 | 3.0 | 0.00 | 0.00 | 0.00 | 46 | 1009.9 |
| 20260905211435 | 91 | 23 | 2.0 | 5.0 | 0.00 | 0.00 | 0.00 | 45 | 1009.9 |
| 20260905211336 | 91 | 25 | 2.0 | 6.0 | 0.00 | 0.00 | 0.00 | 47 | 1009.9 |
| 20260905211235 | 91 | 27 | 1.0 | 6.0 | 0.00 | 0.00 | 0.00 | 47 | 1009.9 |
| 20260905211134 | 91 | 27 | 1.0 | 6.0 | 0.00 | 0.00 | 0.00 | 48 | 1009.9 |
| 20260905211033 | 91 | 25 | 2.0 | 6.0 | 0.00 | 0.00 | 0.00 | 49 | 1009.9 |
| 20260905210931 | 91 | 25 | 2.0 | 6.0 | 0.00 | 0.00 | 0.00 | 46 | 1009.9 |
| 20260905210830 | 91 | 25 | 2.0 | 6.0 | 0.00 | 0.00 | 0.00 | 45 | 1009.9 |
| 20260905210728 | 91 | 24 | 2.0 | 6.0 | 0.00 | 0.00 | 0.00 | 44 | 1009.9 |
| 20260905210631 | 91 | 25 | 3.0 | 6.0 | 0.00 | 0.00 | 0.00 | 46 | 1009.9 |
| 20260905210529 | 91 | 24 | 4.0 | 6.0 | 0.00 | 0.00 | 0.00 | 47 | 1009.9 |
| 20260905210427 | 91 | 27 | 3.0 | 7.0 | 0.00 | 0.00 | 0.00 | 47 | 1009.9 |
| 20260905210326 | 91 | 27 | 3.0 | 7.0 | 0.00 | 0.00 | 0.00 | 47 | 1009.9 |
| 20260905210256 | 91 | 27 | 2.0 | 7.0 | 0.00 | 0.00 | 0.00 | 47 | 1009.9 |
| 20260905210146 | 91 | 27 | 2.0 | 7.0 | 0.00 | 0.00 | 0.00 | 47 | 1009.9 |
| 20260905210044 | 91 | 27 | 2.0 | 7.0 | 0.00 | 0.00 | 0.00 | 47 | 1009.9 |
| 20260905210003 | 91 | 27 | 4.0 | 7.0 | 0.00 | 0.00 | 0.00 | 47 | 1009.9 |
| 20260905205844 | 91 | 25 | 5.0 | 7.0 | 0.00 | 0.00 | 0.00 | 47 | 1009.9 |
| 20260905205741 | 91 | 30 | 5.0 | 7.0 | 0.00 | 0.00 | 0.00 | 48 | 1010.2 |
| 20260905205640 | 91 | 20 | 4.0 | 7.0 | 0.00 | 0.00 | 0.00 | 48 | 1010.2 |
| 20260905205539 | 91 | 18 | 4.0 | 7.0 | 0.00 | 0.00 | 0.00 | 47 | 1010.2 |
| 20260905205458 | 91 | 332 | 2.0 | 6.0 | 0.00 | 0.00 | 0.00 | 47 | 1010.2 |
| 20260905205336 | 91 | 330 | 0.0 | 6.0 | 0.00 | 0.00 | 0.00 | 47 | 1010.2 |
| 20260905205235 | 91 | 330 | 1.0 | 6.0 | 0.00 | 0.00 | 0.00 | 48 | 1010.2 |
| 20260905205154 | 91 | 329 | 4.0 | 6.0 | 0.00 | 0.00 | 0.00 | 49 | 1010.2 |
| 20260905205034 | 91 | 329 | 2.0 | 5.0 | 0.00 | 0.00 | 0.00 | 48 | 1010.2 |
| 20260905204933 | 91 | 329 | 2.0 | 5.0 | 0.00 | 0.00 | 0.00 | 48 | 1010.2 |
| 20260905204852 | 91 | 329 | 2.0 | 5.0 | 0.00 | 0.00 | 0.00 | 48 | 1010.2 |
| 20260905204801 | 91 | 325 | 0.0 | 7.0 | 0.00 | 0.00 | 0.00 | 48 | 1010.2 |
| 20260905204651 | 91 | 328 | 0.0 | 7.0 | 0.00 | 0.00 | 0.00 | 48 | 1010.2 |
| 20260905204528 | 91 | 329 | 2.0 | 8.0 | 0.00 | 0.00 | 0.00 | 48 | 1010.2 |
| 20260905204428 | 91 | 328 | 2.0 | 8.0 | 0.00 | 0.00 | 0.00 | 47 | 1010.2 |
| 20260905204326 | 91 | 329 | 3.0 | 8.0 | 0.00 | 0.00 | 0.00 | 47 | 1010.2 |
| 20260905204229 | 91 | 356 | 3.0 | 8.0 | 0.00 | 0.00 | 0.00 | 48 | 1010.3 |
| 20260905204127 | 91 | 356 | 2.0 | 8.0 | 0.00 | 0.00 | 0.00 | 47 | 1010.3 |
| 20260905204029 | 91 | 359 | 3.0 | 8.0 | 0.00 | 0.00 | 0.00 | 47 | 1010.3 |
| 20260905203928 | 91 | 360 | 4.0 | 10.0 | 0.00 | 0.00 | 0.00 | 48 | 1010.3 |
| 20260905203827 | 91 | 357 | 3.0 | 10.0 | 0.00 | 0.00 | 0.00 | 48 | 1010.3 |
| 20260905203724 | 91 | 337 | 6.0 | 10.0 | 0.00 | 0.00 | 0.00 | 48 | 1010.3 |
| 20260905203642 | 91 | 335 | 6.0 | 10.0 | 0.00 | 0.00 | 0.00 | 49 | 1010.3 |
| 20260905203540 | 91 | 329 | 6.0 | 10.0 | 0.00 | 0.00 | 0.00 | 48 | 1010.3 |
| 20260905203502 | 91 | 352 | 6.0 | 10.0 | 0.00 | 0.00 | 0.00 | 49 | 1010.3 |
| 20260905203338 | 91 | 10 | 5.0 | 10.0 | 0.00 | 0.00 | 0.00 | 48 | 1010.3 |
| 20260905203237 | 91 | 350 | 6.0 | 10.0 | 0.00 | 0.00 | 0.00 | 49 | 1010.3 |
| 20260905203207 | 91 | 305 | 6.0 | 10.0 | 0.00 | 0.00 | 0.00 | 49 | 1010.3 |
| 20260905203025 | 91 | 292 | 0.0 | 6.0 | 0.00 | 0.00 | 0.00 | 49 | 1010.3 |
| 20260905202943 | 91 | 291 | 1.0 | 6.0 | 0.00 | 0.00 | 0.00 | 49 | 1010.3 |
| 20260905202841 | 91 | 291 | 3.0 | 7.0 | 0.00 | 0.00 | 0.00 | 49 | 1010.3 |
| 20260905202722 | 91 | 3 | 1.0 | 8.0 | 0.00 | 0.00 | 0.00 | 49 | 1010.5 |
| 20260905202624 | 91 | 4 | 4.0 | 10.0 | 0.00 | 0.00 | 0.00 | 48 | 1010.5 |
| 20260905202542 | 91 | 4 | 4.0 | 10.0 | 0.00 | 0.00 | 0.00 | 48 | 1010.5 |
| 20260905202439 | 91 | 13 | 4.0 | 10.0 | 0.00 | 0.00 | 0.00 | 48 | 1010.5 |
| 20260905202341 | 91 | 11 | 5.0 | 10.0 | 0.00 | 0.00 | 0.00 | 48 | 1010.5 |
| 20260905202239 | 91 | 14 | 5.0 | 10.0 | 0.00 | 0.00 | 0.00 | 47 | 1010.5 |
| 20260905202137 | 91 | 8 | 4.0 | 10.0 | 0.00 | 0.00 | 0.00 | 49 | 1010.5 |
| 20260905202034 | 91 | 6 | 5.0 | 10.0 | 0.00 | 0.00 | 0.00 | 48 | 1010.5 |
| 20260905201936 | 91 | 360 | 7.0 | 10.0 | 0.00 | 0.00 | 0.00 | 49 | 1010.5 |
| 20260905201834 | 91 | 339 | 6.0 | 10.0 | 0.00 | 0.00 | 0.00 | 50 | 1010.5 |
| 20260905201742 | 91 | 349 | 2.0 | 8.0 | 0.00 | 0.00 | 0.00 | 49 | 1010.5 |
| 20260905201650 | 91 | 352 | 2.0 | 8.0 | 0.00 | 0.00 | 0.00 | 50 | 1010.5 |
| 20260905201548 | 91 | 316 | 4.0 | 8.0 | 0.00 | 0.00 | 0.00 | 50 | 1010.5 |
| 20260905201447 | 91 | 346 | 4.0 | 8.0 | 0.00 | 0.00 | 0.00 | 50 | 1010.5 |
| 20260905201404 | 91 | 333 | 3.0 | 8.0 | 0.00 | 0.00 | 0.00 | 49 | 1010.5 |
| 20260905201242 | 91 | 1 | 1.0 | 5.0 | 0.00 | 0.00 | 0.00 | 49 | 1010.8 |
| 20260905201124 | 91 | 1 | 2.0 | 5.0 | 0.00 | 0.00 | 0.00 | 49 | 1010.8 |
| 20260905201041 | 91 | 330 | 0.0 | 5.0 | 0.00 | 0.00 | 0.00 | 49 | 1010.8 |
| 20260905200940 | 91 | 329 | 0.0 | 5.0 | 0.00 | 0.00 | 0.00 | 49 | 1010.8 |
| 20260905200840 | 91 | 330 | 0.0 | 7.0 | 0.00 | 0.00 | 0.00 | 48 | 1010.8 |
| 20260905200738 | 91 | 328 | 2.0 | 9.0 | 0.00 | 0.00 | 0.00 | 49 | 1010.8 |
| 20260905200637 | 91 | 330 | 2.0 | 9.0 | 0.00 | 0.00 | 0.00 | 48 | 1010.8 |
| 20260905200535 | 91 | 329 | 0.0 | 9.0 | 0.00 | 0.00 | 0.00 | 48 | 1010.8 |
| 20260905200437 | 91 | 329 | 1.0 | 9.0 | 0.00 | 0.00 | 0.00 | 47 | 1010.8 |
| 20260905200338 | 91 | 328 | 2.0 | 9.0 | 0.00 | 0.00 | 0.00 | 49 | 1010.8 |
| 20260905200257 | 91 | 328 | 2.0 | 12.0 | 0.00 | 0.00 | 0.00 | 48 | 1010.8 |
| 20260905200228 | 91 | 328 | 3.0 | 12.0 | 0.00 | 0.00 | 0.00 | 47 | 1010.8 |
| 20260905200042 | 91 | 330 | 5.0 | 12.0 | 0.00 | 0.00 | 0.00 | 47 | 1010.8 |
| 20260905195941 | 91 | 330 | 7.0 | 12.0 | 0.00 | 0.00 | 0.00 | 48 | 1010.8 |
| 20260905195840 | 91 | 329 | 4.0 | 12.0 | 0.00 | 0.00 | 0.00 | 49 | 1010.8 |
| 20260905195739 | 91 | 325 | 3.0 | 12.0 | 0.00 | 0.00 | 0.00 | 49 | 1010.9 |
| 20260905195658 | 91 | 325 | 4.0 | 12.0 | 0.00 | 0.00 | 0.00 | 48 | 1010.9 |
| 20260905195603 | 91 | 313 | 5.0 | 12.0 | 0.00 | 0.00 | 0.00 | 48 | 1010.9 |
| 20260905195500 | 91 | 337 | 8.0 | 12.0 | 0.00 | 0.00 | 0.00 | 48 | 1010.9 |
| 20260905195400 | 91 | 329 | 8.0 | 12.0 | 0.00 | 0.00 | 0.00 | 50 | 1010.9 |
| 20260905195237 | 91 | 340 | 7.0 | 10.0 | 0.00 | 0.00 | 0.00 | 50 | 1010.9 |
| 20260905195135 | 91 | 312 | 4.0 | 10.0 | 0.00 | 0.00 | 0.00 | 49 | 1010.9 |
| 20260905195034 | 91 | 25 | 4.0 | 8.0 | 0.00 | 0.00 | 0.00 | 49 | 1010.9 |
| 20260905194953 | 91 | 360 | 1.0 | 7.0 | 0.00 | 0.00 | 0.00 | 48 | 1010.9 |
| 20260905194830 | 91 | 360 | 2.0 | 7.0 | 0.00 | 0.00 | 0.00 | 48 | 1010.9 |
| 20260905194728 | 91 | 360 | 3.0 | 7.0 | 0.00 | 0.00 | 0.00 | 50 | 1010.9 |
| 20260905194702 | 91 | 360 | 3.0 | 7.0 | 0.00 | 0.00 | 0.00 | 49 | 1010.9 |
| 20260905194540 | 91 | 326 | 3.0 | 7.0 | 0.00 | 0.00 | 0.00 | 48 | 1010.9 |
| 20260905194439 | 91 | 13 | 3.0 | 7.0 | 0.00 | 0.00 | 0.00 | 49 | 1010.9 |
| 20260905194337 | 91 | 4 | 3.0 | 7.0 | 0.00 | 0.00 | 0.00 | 49 | 1010.9 |
| 20260905194236 | 91 | 325 | 4.0 | 7.0 | 0.00 | 0.00 | 0.00 | 49 | 1011.0 |
| 20260905194134 | 90 | 360 | 4.0 | 6.0 | 0.00 | 0.00 | 0.00 | 49 | 1011.0 |
| 20260905194034 | 90 | 8 | 1.0 | 3.0 | 0.00 | 0.00 | 0.00 | 48 | 1011.0 |
| 20260905193937 | 90 | 8 | 1.0 | 3.0 | 0.00 | 0.00 | 0.00 | 49 | 1011.0 |
| 20260905193837 | 90 | 10 | 0.0 | 6.0 | 0.00 | 0.00 | 0.00 | 48 | 1011.0 |
| 20260905193735 | 90 | 14 | 0.0 | 7.0 | 0.00 | 0.00 | 0.00 | 47 | 1011.0 |
| 20260905193633 | 90 | 14 | 1.0 | 7.0 | 0.00 | 0.00 | 0.00 | 47 | 1011.0 |
| 20260905193532 | 90 | 13 | 0.0 | 7.0 | 0.00 | 0.00 | 0.00 | 47 | 1011.0 |
| 20260905193430 | 90 | 14 | 1.0 | 7.0 | 0.00 | 0.00 | 0.00 | 48 | 1011.0 |
| 20260905193333 | 90 | 11 | 1.0 | 7.0 | 0.00 | 0.00 | 0.00 | 47 | 1011.0 |
| 20260905193252 | 90 | 13 | 2.0 | 7.0 | 0.00 | 0.00 | 0.00 | 47 | 1011.0 |
| 20260905193224 | 90 | 16 | 1.0 | 7.0 | 0.00 | 0.00 | 0.00 | 49 | 1011.0 |
| 20260905193101 | 90 | 16 | 2.0 | 7.0 | 0.00 | 0.00 | 0.00 | 49 | 1011.0 |
| 20260905192938 | 90 | 17 | 3.0 | 7.0 | 0.00 | 0.00 | 0.00 | 50 | 1011.0 |
| 20260905192838 | 90 | 24 | 6.0 | 7.0 | 0.00 | 0.00 | 0.00 | 49 | 1011.0 |
| 20260905192758 | 90 | 359 | 6.0 | 7.0 | 0.00 | 0.00 | 0.00 | 48 | 1011.2 |
| 20260905192654 | 90 | 347 | 5.0 | 7.0 | 0.00 | 0.00 | 0.00 | 49 | 1011.2 |
| 20260905192532 | 90 | 319 | 2.0 | 8.0 | 0.00 | 0.00 | 0.00 | 48 | 1011.2 |
| 20260905192435 | 90 | 320 | 4.0 | 8.0 | 0.00 | 0.00 | 0.00 | 48 | 1011.2 |
| 20260905192334 | 90 | 333 | 5.0 | 8.0 | 0.00 | 0.00 | 0.00 | 48 | 1011.2 |
| 20260905192233 | 90 | 328 | 3.0 | 8.0 | 0.00 | 0.00 | 0.00 | 48 | 1011.2 |
| 20260905192151 | 90 | 322 | 1.0 | 8.0 | 0.00 | 0.00 | 0.00 | 49 | 1011.2 |
| 20260905192048 | 90 | 322 | 2.0 | 8.0 | 0.00 | 0.00 | 0.00 | 50 | 1011.2 |
| 20260905191926 | 90 | 320 | 5.0 | 8.0 | 0.00 | 0.00 | 0.00 | 48 | 1011.2 |
| 20260905191824 | 90 | 315 | 4.0 | 8.0 | 0.00 | 0.00 | 0.00 | 48 | 1011.2 |
| 20260905191735 | 90 | 336 | 7.0 | 8.0 | 0.00 | 0.00 | 0.00 | 48 | 1011.2 |
| 20260905191647 | 90 | 340 | 3.0 | 8.0 | 0.00 | 0.00 | 0.00 | 50 | 1011.2 |
| 20260905191525 | 90 | 346 | 5.0 | 8.0 | 0.00 | 0.00 | 0.00 | 49 | 1011.2 |
| 20260905191425 | 90 | 27 | 3.0 | 8.0 | 0.00 | 0.00 | 0.00 | 50 | 1011.2 |
| 20260905191343 | 90 | 30 | 3.0 | 8.0 | 0.00 | 0.00 | 0.00 | 50 | 1011.2 |
| 20260905191240 | 90 | 315 | 1.0 | 8.0 | 0.00 | 0.00 | 0.00 | 50 | 1011.5 |
| 20260905191139 | 90 | 318 | 3.0 | 8.0 | 0.00 | 0.00 | 0.00 | 50 | 1011.5 |
| 20260905191037 | 90 | 322 | 3.0 | 8.0 | 0.00 | 0.00 | 0.00 | 49 | 1011.5 |
| 20260905190956 | 90 | 322 | 6.0 | 8.0 | 0.00 | 0.00 | 0.00 | 49 | 1011.5 |
| 20260905190837 | 90 | 347 | 7.0 | 8.0 | 0.00 | 0.00 | 0.00 | 50 | 1011.5 |
| 20260905190737 | 90 | 336 | 7.0 | 8.0 | 0.00 | 0.00 | 0.00 | 53 | 1011.5 |
| 20260905190635 | 90 | 3 | 5.0 | 7.0 | 0.00 | 0.00 | 0.00 | 52 | 1011.5 |
| 20260905190533 | 90 | 16 | 4.0 | 7.0 | 0.00 | 0.00 | 0.00 | 51 | 1011.5 |
| 20260905190432 | 90 | 359 | 3.0 | 6.0 | 0.00 | 0.00 | 0.00 | 51 | 1011.5 |
| 20260905190349 | 90 | 359 | 0.0 | 6.0 | 0.00 | 0.00 | 0.00 | 51 | 1011.5 |
| 20260905190258 | 90 | 359 | 2.0 | 8.0 | 0.00 | 0.00 | 0.00 | 51 | 1011.5 |
| 20260905190148 | 90 | 359 | 0.0 | 8.0 | 0.00 | 0.00 | 0.00 | 51 | 1011.5 |
| 20260905190025 | 90 | 357 | 0.0 | 8.0 | 0.00 | 0.00 | 0.00 | 50 | 1011.5 |
| 20260905185947 | 90 | 357 | 2.0 | 8.0 | 0.00 | 0.00 | 0.00 | 49 | 1011.5 |
| 20260905185843 | 90 | 357 | 3.0 | 8.0 | 0.00 | 0.00 | 0.00 | 51 | 1011.5 |
| 20260905185802 | 90 | 359 | 2.0 | 8.0 | 0.00 | 0.00 | 0.00 | 50 | 1011.5 |
| 20260905185639 | 90 | 347 | 1.0 | 8.0 | 0.00 | 0.00 | 0.00 | 51 | 1011.5 |
| 20260905185537 | 90 | 347 | 2.0 | 8.0 | 0.00 | 0.00 | 0.00 | 51 | 1011.5 |
| 20260905185456 | 90 | 347 | 5.0 | 8.0 | 0.00 | 0.00 | 0.00 | 51 | 1011.5 |
| 20260905185333 | 90 | 356 | 5.0 | 8.0 | 0.00 | 0.00 | 0.00 | 50 | 1011.5 |
| 20260905185232 | 90 | 13 | 2.0 | 8.0 | 0.00 | 0.00 | 0.00 | 50 | 1011.5 |
| 20260905185134 | 90 | 11 | 2.0 | 8.0 | 0.00 | 0.00 | 0.00 | 49 | 1011.5 |
| 20260905185032 | 90 | 13 | 3.0 | 8.0 | 0.00 | 0.00 | 0.00 | 49 | 1011.5 |
| 20260905184930 | 90 | 14 | 5.0 | 8.0 | 0.00 | 0.00 | 0.00 | 51 | 1011.5 |
| 20260905184829 | 90 | 360 | 2.0 | 8.0 | 0.00 | 0.00 | 0.00 | 51 | 1011.5 |
| 20260905184748 | 90 | 346 | 2.0 | 8.0 | 0.00 | 0.00 | 0.00 | 50 | 1011.5 |
| 20260905184656 | 90 | 344 | 2.0 | 8.0 | 0.00 | 0.00 | 0.00 | 50 | 1011.5 |
| 20260905184534 | 91 | 344 | 2.0 | 8.0 | 0.00 | 0.00 | 0.00 | 50 | 1011.5 |
| 20260905184432 | 91 | 343 | 5.0 | 8.0 | 0.00 | 0.00 | 0.00 | 49 | 1011.5 |
| 20260905184336 | 91 | 329 | 4.0 | 8.0 | 0.00 | 0.00 | 0.00 | 51 | 1011.5 |
| 20260905184234 | 91 | 350 | 1.0 | 5.0 | 0.00 | 0.00 | 0.00 | 51 | 1011.7 |
| 20260905184133 | 91 | 350 | 1.0 | 5.0 | 0.00 | 0.00 | 0.00 | 50 | 1011.7 |
| 20260905184031 | 91 | 352 | 0.0 | 6.0 | 0.00 | 0.00 | 0.00 | 51 | 1011.7 |
| 20260905183929 | 91 | 352 | 0.0 | 6.0 | 0.00 | 0.00 | 0.00 | 51 | 1011.7 |
| 20260905183848 | 91 | 352 | 2.0 | 6.0 | 0.00 | 0.00 | 0.00 | 51 | 1011.7 |
| 20260905183746 | 91 | 350 | 0.0 | 8.0 | 0.00 | 0.00 | 0.00 | 50 | 1011.7 |
| 20260905183628 | 91 | 350 | 1.0 | 8.0 | 0.00 | 0.00 | 0.00 | 49 | 1011.7 |
| 20260905183525 | 91 | 354 | 2.0 | 8.0 | 0.00 | 0.00 | 0.00 | 50 | 1011.7 |
| 20260905183424 | 91 | 354 | 3.0 | 8.0 | 0.00 | 0.00 | 0.00 | 50 | 1011.7 |
| 20260905183343 | 91 | 354 | 2.0 | 11.0 | 0.00 | 0.00 | 0.00 | 50 | 1011.7 |
| 20260905183242 | 91 | 352 | 3.0 | 11.0 | 0.00 | 0.00 | 0.00 | 49 | 1011.7 |
| 20260905183213 | 91 | 352 | 4.0 | 11.0 | 0.00 | 0.00 | 0.00 | 50 | 1011.7 |
| 20260905183028 | 91 | 337 | 4.0 | 11.0 | 0.00 | 0.00 | 0.00 | 51 | 1011.7 |
| 20260905182947 | 91 | 343 | 6.0 | 11.0 | 0.00 | 0.00 | 0.00 | 50 | 1011.7 |
| 20260905182827 | 91 | 356 | 4.0 | 11.0 | 0.00 | 0.00 | 0.00 | 49 | 1011.7 |
| 20260905182727 | 91 | 28 | 0.0 | 11.0 | 0.00 | 0.00 | 0.00 | 49 | 1012.0 |
| 20260905182647 | 91 | 31 | 2.0 | 11.0 | 0.00 | 0.00 | 0.00 | 49 | 1012.0 |
| 20260905182543 | 91 | 30 | 6.0 | 11.0 | 0.00 | 0.00 | 0.00 | 49 | 1012.0 |
| 20260905182442 | 91 | 30 | 7.0 | 11.0 | 0.00 | 0.00 | 0.00 | 48 | 1012.0 |
| 20260905182341 | 91 | 325 | 6.0 | 9.0 | 0.00 | 0.00 | 0.00 | 52 | 1012.0 |
| 20260905182238 | 91 | 328 | 3.0 | 7.0 | 0.00 | 0.00 | 0.00 | 52 | 1012.0 |
| 20260905182137 | 91 | 353 | 3.0 | 7.0 | 0.00 | 0.00 | 0.00 | 52 | 1012.0 |
| 20260905182040 | 91 | 350 | 3.0 | 7.0 | 0.00 | 0.00 | 0.00 | 52 | 1012.0 |
| 20260905181939 | 91 | 349 | 1.0 | 7.0 | 0.00 | 0.00 | 0.00 | 52 | 1012.0 |
| 20260905181856 | 91 | 353 | 3.0 | 7.0 | 0.00 | 0.00 | 0.00 | 52 | 1012.0 |
| 20260905181815 | 91 | 1 | 4.0 | 7.0 | 0.00 | 0.00 | 0.00 | 51 | 1012.0 |
| 20260905181723 | 90 | 16 | 2.0 | 7.0 | 0.00 | 0.00 | 0.00 | 52 | 1012.0 |
| 20260905181540 | 90 | 322 | 0.0 | 6.0 | 0.00 | 0.00 | 0.00 | 52 | 1012.0 |
| 20260905181501 | 90 | 320 | 2.0 | 6.0 | 0.00 | 0.00 | 0.00 | 53 | 1012.0 |
| 20260905181338 | 90 | 322 | 2.0 | 6.0 | 0.00 | 0.00 | 0.00 | 53 | 1012.0 |
| 20260905181240 | 90 | 319 | 2.0 | 7.0 | 0.00 | 0.00 | 0.00 | 53 | 1012.0 |
| 20260905181159 | 90 | 320 | 2.0 | 7.0 | 0.00 | 0.00 | 0.00 | 53 | 1012.0 |
| 20260905181035 | 90 | 318 | 1.0 | 7.0 | 0.00 | 0.00 | 0.00 | 53 | 1012.0 |
| 20260905180933 | 90 | 319 | 1.0 | 8.0 | 0.00 | 0.00 | 0.00 | 52 | 1012.0 |
| 20260905180831 | 90 | 319 | 4.0 | 8.0 | 0.00 | 0.00 | 0.00 | 52 | 1012.0 |
| 20260905180749 | 90 | 356 | 4.0 | 8.0 | 0.00 | 0.00 | 0.00 | 53 | 1012.0 |
| 20260905180627 | 90 | 357 | 0.0 | 8.0 | 0.00 | 0.00 | 0.00 | 53 | 1012.0 |
| 20260905180526 | 90 | 359 | 1.0 | 8.0 | 0.00 | 0.00 | 0.00 | 52 | 1012.0 |
| 20260905180429 | 90 | 359 | 4.0 | 8.0 | 0.00 | 0.00 | 0.00 | 51 | 1012.0 |
| 20260905180327 | 90 | 17 | 3.0 | 8.0 | 0.00 | 0.00 | 0.00 | 51 | 1012.0 |
| 20260905180245 | 90 | 17 | 5.0 | 8.0 | 0.00 | 0.00 | 0.00 | 52 | 1012.0 |
| 20260905180155 | 90 | 16 | 6.0 | 8.0 | 0.00 | 0.00 | 0.00 | 52 | 1012.0 |
| 20260905180032 | 90 | 295 | 5.0 | 7.0 | 0.00 | 0.00 | 0.00 | 52 | 1012.0 |
| 20260905175932 | 90 | 356 | 4.0 | 7.0 | 0.00 | 0.00 | 0.00 | 54 | 1012.0 |
| 20260905175851 | 90 | 343 | 5.0 | 7.0 | 0.00 | 0.00 | 0.00 | 55 | 1012.0 |
| 20260905175731 | 90 | 359 | 4.0 | 7.0 | 0.00 | 0.00 | 0.00 | 55 | 1012.1 |
| 20260905175632 | 90 | 360 | 4.0 | 7.0 | 0.00 | 0.00 | 0.00 | 54 | 1012.1 |
| 20260905175531 | 90 | 32 | 2.0 | 5.0 | 0.00 | 0.00 | 0.00 | 54 | 1012.1 |
| 20260905175429 | 90 | 34 | 2.0 | 6.0 | 0.00 | 0.00 | 0.00 | 54 | 1012.1 |
| 20260905175327 | 90 | 32 | 1.0 | 6.0 | 0.00 | 0.00 | 0.00 | 55 | 1012.1 |
| 20260905175246 | 90 | 31 | 0.0 | 6.0 | 0.00 | 0.00 | 0.00 | 55 | 1012.1 |
| 20260905175204 | 90 | 32 | 0.0 | 7.0 | 0.00 | 0.00 | 0.00 | 55 | 1012.1 |
| 20260905175040 | 90 | 34 | 1.0 | 8.0 | 0.00 | 0.00 | 0.00 | 54 | 1012.1 |
| 20260905174940 | 90 | 31 | 2.0 | 8.0 | 0.00 | 0.00 | 0.00 | 54 | 1012.1 |
| 20260905174903 | 90 | 34 | 2.0 | 8.0 | 0.00 | 0.00 | 0.00 | 55 | 1012.1 |
| 20260905174740 | 90 | 32 | 2.0 | 8.0 | 0.00 | 0.00 | 0.00 | 55 | 1012.1 |
| 20260905174711 | 90 | 38 | 2.0 | 8.0 | 0.00 | 0.00 | 0.00 | 55 | 1012.1 |
| 20260905174528 | 90 | 37 | 4.0 | 8.0 | 0.00 | 0.00 | 0.00 | 56 | 1012.1 |
| 20260905174427 | 90 | 40 | 3.0 | 8.0 | 0.00 | 0.00 | 0.00 | 55 | 1012.1 |
| 20260905174326 | 90 | 42 | 5.0 | 8.0 | 0.00 | 0.00 | 0.00 | 55 | 1012.1 |
| 20260905174243 | 90 | 44 | 6.0 | 8.0 | 0.00 | 0.00 | 0.00 | 55 | 1012.4 |
| 20260905174126 | 90 | 38 | 6.0 | 8.0 | 0.00 | 0.00 | 0.00 | 54 | 1012.4 |
| 20260905174025 | 90 | 309 | 1.0 | 6.0 | 0.00 | 0.00 | 0.00 | 56 | 1012.4 |
| 20260905173943 | 90 | 291 | 0.0 | 6.0 | 0.00 | 0.00 | 0.00 | 56 | 1012.4 |
| 20260905173841 | 90 | 291 | 1.0 | 6.0 | 0.00 | 0.00 | 0.00 | 56 | 1012.4 |
| 20260905173759 | 90 | 291 | 2.0 | 6.0 | 0.00 | 0.00 | 0.00 | 55 | 1012.4 |
| 20260905173638 | 90 | 294 | 1.0 | 6.0 | 0.00 | 0.00 | 0.00 | 56 | 1012.4 |
| 20260905173556 | 90 | 295 | 1.0 | 6.0 | 0.00 | 0.00 | 0.00 | 56 | 1012.4 |
| 20260905173432 | 90 | 287 | 1.0 | 6.0 | 0.00 | 0.00 | 0.00 | 56 | 1012.4 |
| 20260905173330 | 89 | 288 | 4.0 | 6.0 | 0.00 | 0.00 | 0.00 | 55 | 1012.4 |
| 20260905173232 | 89 | 315 | 3.0 | 7.0 | 0.00 | 0.00 | 0.00 | 56 | 1012.4 |
| 20260905173203 | 89 | 316 | 2.0 | 7.0 | 0.00 | 0.00 | 0.00 | 56 | 1012.4 |
| 20260905173039 | 89 | 316 | 2.0 | 7.0 | 0.00 | 0.00 | 0.00 | 56 | 1012.4 |
| 20260905172938 | 89 | 319 | 2.0 | 7.0 | 0.00 | 0.00 | 0.00 | 56 | 1012.4 |
| 20260905172837 | 89 | 318 | 1.0 | 7.0 | 0.00 | 0.00 | 0.00 | 56 | 1012.4 |
| 20260905172739 | 89 | 320 | 2.0 | 7.0 | 0.00 | 0.00 | 0.00 | 55 | 1012.6 |
| 20260905172657 | 89 | 323 | 2.0 | 10.0 | 0.00 | 0.00 | 0.00 | 54 | 1012.6 |
| 20260905172535 | 89 | 322 | 2.0 | 10.0 | 0.00 | 0.00 | 0.00 | 56 | 1012.6 |
| 20260905172459 | 89 | 322 | 2.0 | 10.0 | 0.00 | 0.00 | 0.00 | 55 | 1012.6 |
| 20260905172336 | 89 | 319 | 5.0 | 10.0 | 0.00 | 0.00 | 0.00 | 55 | 1012.6 |
| 20260905172235 | 89 | 329 | 1.0 | 10.0 | 0.00 | 0.00 | 0.00 | 56 | 1012.6 |
| 20260905172134 | 89 | 329 | 0.0 | 10.0 | 0.00 | 0.00 | 0.00 | 56 | 1012.6 |
| 20260905172031 | 89 | 329 | 2.0 | 10.0 | 0.00 | 0.00 | 0.00 | 56 | 1012.6 |
| 20260905171928 | 89 | 328 | 3.0 | 10.0 | 0.00 | 0.00 | 0.00 | 56 | 1012.6 |
| 20260905171847 | 89 | 325 | 7.0 | 10.0 | 0.00 | 0.00 | 0.00 | 55 | 1012.6 |
| 20260905171736 | 89 | 294 | 4.0 | 7.0 | 0.00 | 0.00 | 0.00 | 56 | 1012.6 |
| 20260905171647 | 89 | 302 | 1.0 | 7.0 | 0.00 | 0.00 | 0.00 | 56 | 1012.6 |
| 20260905171545 | 89 | 344 | 1.0 | 7.0 | 0.00 | 0.00 | 0.00 | 55 | 1012.6 |
| 20260905171442 | 89 | 342 | 2.0 | 7.0 | 0.00 | 0.00 | 0.00 | 55 | 1012.6 |
| 20260905171341 | 89 | 343 | 1.0 | 7.0 | 0.00 | 0.00 | 0.00 | 55 | 1012.6 |
| 20260905171239 | 89 | 343 | 3.0 | 7.0 | 0.00 | 0.00 | 0.00 | 56 | 1012.6 |
| 20260905171138 | 89 | 344 | 5.0 | 7.0 | 0.00 | 0.00 | 0.00 | 57 | 1012.6 |
| 20260905171057 | 89 | 359 | 5.0 | 7.0 | 0.00 | 0.00 | 0.00 | 57 | 1012.6 |
| 20260905170934 | 89 | 340 | 2.0 | 7.0 | 0.00 | 0.00 | 0.00 | 56 | 1012.6 |
| 20260905170852 | 89 | 340 | 2.0 | 7.0 | 0.00 | 0.00 | 0.00 | 56 | 1012.6 |
| 20260905170734 | 89 | 330 | 0.0 | 7.0 | 0.00 | 0.00 | 0.00 | 56 | 1012.6 |
| 20260905170633 | 89 | 330 | 3.0 | 7.0 | 0.00 | 0.00 | 0.00 | 56 | 1012.6 |
| 20260905170531 | 89 | 330 | 4.0 | 7.0 | 0.00 | 0.00 | 0.00 | 57 | 1012.6 |
| 20260905170449 | 89 | 330 | 2.0 | 7.0 | 0.00 | 0.00 | 0.00 | 57 | 1012.6 |
| 20260905170326 | 89 | 325 | 1.0 | 7.0 | 0.00 | 0.00 | 0.00 | 57 | 1012.6 |
| 20260905170237 | 89 | 325 | 3.0 | 7.0 | 0.00 | 0.00 | 0.00 | 56 | 1012.6 |
| 20260905170146 | 89 | 332 | 0.0 | 7.0 | 0.00 | 0.00 | 0.00 | 56 | 1012.6 |
| 20260905170027 | 89 | 328 | 1.0 | 7.0 | 0.00 | 0.00 | 0.00 | 56 | 1012.6 |
| 20260905165945 | 89 | 332 | 6.0 | 7.0 | 0.00 | 0.00 | 0.00 | 55 | 1012.6 |
| 20260905165841 | 89 | 326 | 6.0 | 7.0 | 0.00 | 0.00 | 0.00 | 56 | 1012.6 |
| 20260905165800 | 89 | 302 | 3.0 | 7.0 | 0.00 | 0.00 | 0.00 | 57 | 1012.8 |
| 20260905165638 | 88 | 292 | 1.0 | 7.0 | 0.00 | 0.00 | 0.00 | 58 | 1012.8 |
| 20260905165536 | 88 | 280 | 3.0 | 7.0 | 0.00 | 0.00 | 0.00 | 58 | 1012.8 |
| 20260905165435 | 88 | 292 | 2.0 | 7.0 | 0.00 | 0.00 | 0.00 | 57 | 1012.8 |
| 20260905165334 | 88 | 292 | 3.0 | 7.0 | 0.00 | 0.00 | 0.00 | 58 | 1012.8 |
| 20260905165237 | 88 | 284 | 2.0 | 6.0 | 0.00 | 0.00 | 0.00 | 57 | 1012.8 |
| 20260905165136 | 88 | 328 | 2.0 | 7.0 | 0.00 | 0.00 | 0.00 | 58 | 1012.8 |
| 20260905165035 | 88 | 328 | 2.0 | 7.0 | 0.00 | 0.00 | 0.00 | 58 | 1012.8 |
| 20260905164933 | 88 | 329 | 1.0 | 7.0 | 0.00 | 0.00 | 0.00 | 57 | 1012.8 |
| 20260905164833 | 88 | 330 | 3.0 | 7.0 | 0.00 | 0.00 | 0.00 | 57 | 1012.8 |
| 20260905164743 | 88 | 292 | 1.0 | 7.0 | 0.00 | 0.00 | 0.00 | 57 | 1012.8 |
| 20260905164652 | 88 | 295 | 2.0 | 7.0 | 0.00 | 0.00 | 0.00 | 58 | 1012.8 |
| 20260905164537 | 88 | 295 | 2.0 | 7.0 | 0.00 | 0.00 | 0.00 | 57 | 1012.8 |
| 20260905164435 | 88 | 318 | 3.0 | 7.0 | 0.00 | 0.00 | 0.00 | 57 | 1012.8 |
| 20260905164334 | 88 | 328 | 4.0 | 7.0 | 0.00 | 0.00 | 0.00 | 60 | 1012.8 |
| 20260905164234 | 88 | 329 | 2.0 | 6.0 | 0.00 | 0.00 | 0.00 | 59 | 1013.1 |
| 20260905164132 | 88 | 313 | 1.0 | 6.0 | 0.00 | 0.00 | 0.00 | 59 | 1013.1 |
| 20260905164051 | 88 | 313 | 2.0 | 6.0 | 0.00 | 0.00 | 0.00 | 60 | 1013.1 |
| 20260905163927 | 88 | 312 | 1.0 | 6.0 | 0.00 | 0.00 | 0.00 | 59 | 1013.1 |
| 20260905163831 | 87 | 308 | 0.0 | 6.0 | 0.00 | 0.00 | 0.00 | 59 | 1013.1 |
| 20260905163729 | 87 | 311 | 0.0 | 7.0 | 0.00 | 0.00 | 0.00 | 60 | 1013.1 |
| 20260905163630 | 87 | 311 | 0.0 | 7.0 | 0.00 | 0.00 | 0.00 | 61 | 1013.1 |
| 20260905163528 | 87 | 311 | 2.0 | 7.0 | 0.00 | 0.00 | 0.00 | 61 | 1013.1 |
| 20260905163429 | 87 | 308 | 3.0 | 7.0 | 0.00 | 0.00 | 0.00 | 60 | 1013.1 |
| 20260905163325 | 87 | 309 | 5.0 | 7.0 | 0.00 | 0.00 | 0.00 | 61 | 1013.1 |
| 20260905163227 | 87 | 309 | 4.0 | 7.0 | 0.00 | 0.00 | 0.00 | 60 | 1013.1 |
| 20260905163158 | 87 | 320 | 3.0 | 7.0 | 0.00 | 0.00 | 0.00 | 60 | 1013.1 |
| 20260905163039 | 87 | 337 | 2.0 | 7.0 | 0.00 | 0.00 | 0.00 | 61 | 1013.1 |
| 20260905162939 | 87 | 292 | 3.0 | 7.0 | 0.00 | 0.00 | 0.00 | 61 | 1013.1 |
| 20260905162837 | 87 | 325 | 3.0 | 7.0 | 0.00 | 0.00 | 0.00 | 61 | 1013.1 |
| 20260905162735 | 87 | 320 | 2.0 | 6.0 | 0.00 | 0.00 | 0.00 | 61 | 1013.2 |
| 20260905162635 | 87 | 318 | 3.0 | 6.0 | 0.00 | 0.00 | 0.00 | 61 | 1013.2 |
| 20260905162533 | 87 | 319 | 1.0 | 6.0 | 0.00 | 0.00 | 0.00 | 61 | 1013.2 |
| 20260905162431 | 87 | 318 | 3.0 | 6.0 | 0.00 | 0.00 | 0.00 | 61 | 1013.2 |
| 20260905162334 | 87 | 319 | 4.0 | 6.0 | 0.00 | 0.00 | 0.00 | 61 | 1013.2 |
| 20260905162252 | 87 | 313 | 2.0 | 6.0 | 0.00 | 0.00 | 0.00 | 61 | 1013.2 |
| 20260905162155 | 87 | 335 | 2.0 | 6.0 | 0.00 | 0.00 | 0.00 | 60 | 1013.2 |
| 20260905162034 | 87 | 319 | 2.0 | 6.0 | 0.00 | 0.00 | 0.00 | 60 | 1013.2 |
| 20260905161936 | 87 | 346 | 4.0 | 6.0 | 0.00 | 0.00 | 0.00 | 62 | 1013.2 |
| 20260905161833 | 87 | 318 | 2.0 | 6.0 | 0.00 | 0.00 | 0.00 | 62 | 1013.2 |
| 20260905161752 | 87 | 313 | 1.0 | 6.0 | 0.00 | 0.00 | 0.00 | 62 | 1013.2 |
| 20260905161721 | 87 | 315 | 2.0 | 6.0 | 0.00 | 0.00 | 0.00 | 62 | 1013.2 |
| 20260905161542 | 86 | 312 | 1.0 | 6.0 | 0.00 | 0.00 | 0.00 | 62 | 1013.2 |
| 20260905161501 | 86 | 313 | 0.0 | 6.0 | 0.00 | 0.00 | 0.00 | 62 | 1013.2 |
| 20260905161338 | 86 | 311 | 1.0 | 6.0 | 0.00 | 0.00 | 0.00 | 62 | 1013.2 |
| 20260905161237 | 86 | 312 | 3.0 | 6.0 | 0.00 | 0.00 | 0.00 | 62 | 1013.4 |
| 20260905161135 | 86 | 313 | 2.0 | 6.0 | 0.00 | 0.00 | 0.00 | 61 | 1013.4 |
| 20260905161034 | 86 | 312 | 4.0 | 6.0 | 0.00 | 0.00 | 0.00 | 62 | 1013.4 |
| 20260905160931 | 86 | 313 | 3.0 | 6.0 | 0.00 | 0.00 | 0.00 | 63 | 1013.4 |
| 20260905160851 | 86 | 312 | 2.0 | 6.0 | 0.00 | 0.00 | 0.00 | 63 | 1013.4 |
| 20260905160732 | 86 | 311 | 4.0 | 6.0 | 0.00 | 0.00 | 0.00 | 62 | 1013.4 |
| 20260905160631 | 86 | 312 | 5.0 | 6.0 | 0.00 | 0.00 | 0.00 | 63 | 1013.4 |
| 20260905160531 | 86 | 312 | 4.0 | 6.0 | 0.00 | 0.00 | 0.00 | 62 | 1013.4 |
| 20260905160429 | 86 | 315 | 4.0 | 6.0 | 0.00 | 0.00 | 0.00 | 62 | 1013.4 |
| 20260905160348 | 86 | 316 | 2.0 | 3.0 | 0.00 | 0.00 | 0.00 | 62 | 1013.4 |
| 20260905160246 | 86 | 316 | 1.0 | 3.0 | 0.00 | 0.00 | 0.00 | 62 | 1013.4 |
| 20260905160216 | 86 | 318 | 1.0 | 3.0 | 0.00 | 0.00 | 0.00 | 62 | 1013.4 |
| 20260905160031 | 86 | 319 | 2.0 | 5.0 | 0.00 | 0.00 | 0.00 | 63 | 1013.4 |
| 20260905155934 | 86 | 318 | 0.0 | 5.0 | 0.00 | 0.00 | 0.00 | 63 | 1013.4 |
| 20260905155834 | 86 | 318 | 1.0 | 5.0 | 0.00 | 0.00 | 0.00 | 63 | 1013.4 |
| 20260905155752 | 86 | 316 | 2.0 | 5.0 | 0.00 | 0.00 | 0.00 | 63 | 1013.4 |
| 20260905155630 | 86 | 318 | 1.0 | 5.0 | 0.00 | 0.00 | 0.00 | 64 | 1013.4 |
| 20260905155528 | 86 | 318 | 2.0 | 5.0 | 0.00 | 0.00 | 0.00 | 63 | 1013.4 |
| 20260905155427 | 86 | 318 | 2.0 | 5.0 | 0.00 | 0.00 | 0.00 | 64 | 1013.4 |
| 20260905155328 | 85 | 315 | 2.0 | 5.0 | 0.00 | 0.00 | 0.00 | 64 | 1013.4 |
| 20260905155230 | 85 | 318 | 4.0 | 5.0 | 0.00 | 0.00 | 0.00 | 65 | 1013.4 |
| 20260905155127 | 85 | 318 | 2.0 | 5.0 | 0.00 | 0.00 | 0.00 | 66 | 1013.4 |
| 20260905155027 | 85 | 318 | 1.0 | 5.0 | 0.00 | 0.00 | 0.00 | 65 | 1013.4 |
| 20260905154926 | 85 | 316 | 2.0 | 5.0 | 0.00 | 0.00 | 0.00 | 66 | 1013.4 |
| 20260905154826 | 85 | 316 | 1.0 | 6.0 | 0.00 | 0.00 | 0.00 | 65 | 1013.4 |
| 20260905154726 | 85 | 318 | 0.0 | 6.0 | 0.00 | 0.00 | 0.00 | 65 | 1013.4 |
| 20260905154657 | 85 | 318 | 0.0 | 6.0 | 0.00 | 0.00 | 0.00 | 65 | 1013.4 |
| 20260905154537 | 85 | 319 | 0.0 | 7.0 | 0.00 | 0.00 | 0.00 | 65 | 1013.4 |
| 20260905154455 | 85 | 318 | 1.0 | 7.0 | 0.00 | 0.00 | 0.00 | 66 | 1013.4 |
| 20260905154333 | 85 | 318 | 2.0 | 7.0 | 0.00 | 0.00 | 0.00 | 67 | 1013.4 |
| 20260905154233 | 85 | 318 | 4.0 | 7.0 | 0.00 | 0.00 | 0.00 | 68 | 1013.4 |
| 20260905154131 | 85 | 316 | 3.0 | 7.0 | 0.00 | 0.00 | 0.00 | 68 | 1013.4 |
| 20260905154029 | 85 | 318 | 4.0 | 7.0 | 0.00 | 0.00 | 0.00 | 66 | 1013.4 |
| 20260905153928 | 85 | 318 | 4.0 | 7.0 | 0.00 | 0.00 | 0.00 | 66 | 1013.4 |
| 20260905153827 | 85 | 319 | 5.0 | 7.0 | 0.00 | 0.00 | 0.00 | 66 | 1013.4 |
| 20260905153728 | 85 | 320 | 5.0 | 7.0 | 0.00 | 0.00 | 0.00 | 68 | 1013.4 |
| 20260905153627 | 85 | 320 | 3.0 | 6.0 | 0.00 | 0.00 | 0.00 | 67 | 1013.4 |
| 20260905153527 | 85 | 320 | 3.0 | 6.0 | 0.00 | 0.00 | 0.00 | 67 | 1013.4 |
| 20260905153426 | 85 | 322 | 3.0 | 6.0 | 0.00 | 0.00 | 0.00 | 67 | 1013.4 |
| 20260905153344 | 85 | 319 | 1.0 | 5.0 | 0.00 | 0.00 | 0.00 | 68 | 1013.4 |
| 20260905153242 | 85 | 320 | 3.0 | 5.0 | 0.00 | 0.00 | 0.00 | 68 | 1013.4 |
| 20260905153213 | 85 | 319 | 3.0 | 5.0 | 0.00 | 0.00 | 0.00 | 69 | 1013.4 |
| 20260905153049 | 85 | 333 | 2.0 | 5.0 | 0.00 | 0.00 | 0.00 | 68 | 1013.4 |
| 20260905152929 | 85 | 333 | 1.0 | 5.0 | 0.00 | 0.00 | 0.00 | 68 | 1013.4 |
| 20260905152827 | 85 | 335 | 1.0 | 5.0 | 0.00 | 0.00 | 0.00 | 68 | 1013.4 |
| 20260905152747 | 85 | 335 | 1.0 | 5.0 | 0.00 | 0.00 | 0.00 | 69 | 1013.4 |
| 20260905152649 | 84 | 333 | 2.0 | 5.0 | 0.00 | 0.00 | 0.00 | 69 | 1013.4 |
| 20260905152546 | 84 | 333 | 1.0 | 5.0 | 0.00 | 0.00 | 0.00 | 69 | 1013.4 |
| 20260905152446 | 84 | 333 | 2.0 | 5.0 | 0.00 | 0.00 | 0.00 | 69 | 1013.4 |
| 20260905152344 | 84 | 333 | 3.0 | 5.0 | 0.00 | 0.00 | 0.00 | 68 | 1013.4 |
| 20260905152301 | 84 | 335 | 3.0 | 5.0 | 0.00 | 0.00 | 0.00 | 68 | 1013.4 |
| 20260905152139 | 84 | 336 | 3.0 | 5.0 | 0.00 | 0.00 | 0.00 | 69 | 1013.4 |
| 20260905152057 | 84 | 336 | 1.0 | 4.0 | 0.00 | 0.00 | 0.00 | 68 | 1013.4 |
| 20260905151954 | 84 | 337 | 1.0 | 4.0 | 0.00 | 0.00 | 0.00 | 68 | 1013.4 |
| 20260905151836 | 84 | 340 | 0.0 | 4.0 | 0.00 | 0.00 | 0.00 | 68 | 1013.4 |
| 20260905151735 | 84 | 339 | 0.0 | 4.0 | 0.00 | 0.00 | 0.00 | 69 | 1013.4 |
| 20260905151704 | 84 | 339 | 0.0 | 4.0 | 0.00 | 0.00 | 0.00 | 69 | 1013.4 |
| 20260905151541 | 84 | 339 | 0.0 | 4.0 | 0.00 | 0.00 | 0.00 | 69 | 1013.4 |
| 20260905151439 | 84 | 337 | 0.0 | 4.0 | 0.00 | 0.00 | 0.00 | 69 | 1013.4 |
| 20260905151337 | 84 | 340 | 1.0 | 4.0 | 0.00 | 0.00 | 0.00 | 69 | 1013.4 |
| 20260905151237 | 84 | 339 | 0.0 | 4.0 | 0.00 | 0.00 | 0.00 | 70 | 1012.4 |
| 20260905151140 | 84 | 340 | 0.0 | 2.0 | 0.00 | 0.00 | 0.00 | 70 | 1012.4 |
| 20260905151039 | 84 | 340 | 0.0 | 2.0 | 0.00 | 0.00 | 0.00 | 70 | 1012.4 |
| 20260905150937 | 83 | 340 | 0.0 | 2.0 | 0.00 | 0.00 | 0.00 | 70 | 1012.4 |
| 20260905150836 | 83 | 337 | 0.0 | 2.0 | 0.00 | 0.00 | 0.00 | 71 | 1012.4 |
| 20260905150734 | 83 | 340 | 0.0 | 2.0 | 0.00 | 0.00 | 0.00 | 71 | 1012.4 |
| 20260905150633 | 83 | 340 | 0.0 | 2.0 | 0.00 | 0.00 | 0.00 | 71 | 1012.4 |
| 20260905150535 | 83 | 339 | 0.0 | 2.0 | 0.00 | 0.00 | 0.00 | 71 | 1012.4 |
| 20260905150433 | 83 | 342 | 0.0 | 2.0 | 0.00 | 0.00 | 0.00 | 71 | 1012.4 |
| 20260905150332 | 83 | 342 | 1.0 | 2.0 | 0.00 | 0.00 | 0.00 | 71 | 1012.4 |
| 20260905150301 | 83 | 340 | 2.0 | 2.0 | 0.00 | 0.00 | 0.00 | 71 | 1012.4 |
| 20260905150151 | 83 | 337 | 2.0 | 2.0 | 0.00 | 0.00 | 0.00 | 71 | 1012.4 |
| 20260905150030 | 83 | 339 | 0.0 | 2.0 | 0.00 | 0.00 | 0.00 | 71 | 1012.4 |
| 20260905145927 | 83 | 336 | 0.0 | 1.0 | 0.00 | 0.00 | 0.00 | 71 | 1012.4 |
| 20260905145846 | 83 | 340 | 0.0 | 1.0 | 0.00 | 0.00 | 0.00 | 71 | 1012.4 |
| 20260905145804 | 83 | 335 | 0.0 | 1.0 | 0.00 | 0.00 | 0.00 | 71 | 1012.5 |
| 20260905145707 | 83 | 340 | 0.0 | 1.0 | 0.00 | 0.00 | 0.00 | 71 | 1012.5 |
| 20260905145605 | 83 | 340 | 0.0 | 2.0 | 0.00 | 0.00 | 0.00 | 71 | 1012.5 |
| 20260905145442 | 83 | 340 | 0.0 | 2.0 | 0.00 | 0.00 | 0.00 | 71 | 1012.5 |
| 20260905145341 | 83 | 340 | 0.0 | 2.0 | 0.00 | 0.00 | 0.00 | 71 | 1012.5 |
| 20260905145258 | 82 | 340 | 0.0 | 2.0 | 0.00 | 0.00 | 0.00 | 71 | 1012.5 |
| 20260905145137 | 82 | 340 | 0.0 | 2.0 | 0.00 | 0.00 | 0.00 | 71 | 1012.5 |
| 20260905145034 | 82 | 340 | 0.0 | 2.0 | 0.00 | 0.00 | 0.00 | 71 | 1012.5 |
| 20260905144933 | 82 | 337 | 0.0 | 2.0 | 0.00 | 0.00 | 0.00 | 72 | 1012.5 |
| 20260905144856 | 82 | 340 | 0.0 | 3.0 | 0.00 | 0.00 | 0.00 | 72 | 1012.5 |
| 20260905144703 | 82 | 340 | 0.0 | 3.0 | 0.00 | 0.00 | 0.00 | 71 | 1012.5 |
| 20260905144541 | 82 | 340 | 0.0 | 3.0 | 0.00 | 0.00 | 0.00 | 71 | 1012.5 |
| 20260905144440 | 82 | 340 | 0.0 | 3.0 | 0.00 | 0.00 | 0.00 | 70 | 1012.5 |
| 20260905144339 | 82 | 340 | 0.0 | 3.0 | 0.00 | 0.00 | 0.00 | 70 | 1012.5 |
| 20260905144237 | 82 | 339 | 0.0 | 3.0 | 0.00 | 0.00 | 0.00 | 70 | 1012.8 |
| 20260905144140 | 82 | 340 | 1.0 | 4.0 | 0.00 | 0.00 | 0.00 | 70 | 1012.8 |
| 20260905144059 | 82 | 336 | 2.0 | 4.0 | 0.00 | 0.00 | 0.00 | 70 | 1012.8 |
| 20260905143936 | 82 | 340 | 1.0 | 4.0 | 0.00 | 0.00 | 0.00 | 69 | 1012.8 |
| 20260905143834 | 82 | 339 | 1.0 | 4.0 | 0.00 | 0.00 | 0.00 | 69 | 1012.8 |
| 20260905143733 | 82 | 340 | 2.0 | 5.0 | 0.00 | 0.00 | 0.00 | 70 | 1012.8 |
| 20260905143632 | 82 | 336 | 2.0 | 5.0 | 0.00 | 0.00 | 0.00 | 71 | 1012.8 |
| 20260905143531 | 82 | 340 | 1.0 | 5.0 | 0.00 | 0.00 | 0.00 | 71 | 1012.8 |
| 20260905143450 | 82 | 342 | 2.0 | 5.0 | 0.00 | 0.00 | 0.00 | 72 | 1012.8 |
| 20260905143335 | 82 | 340 | 2.0 | 5.0 | 0.00 | 0.00 | 0.00 | 73 | 1012.8 |
| 20260905143233 | 82 | 340 | 1.0 | 5.0 | 0.00 | 0.00 | 0.00 | 73 | 1012.8 |
| 20260905143205 | 81 | 342 | 1.0 | 5.0 | 0.00 | 0.00 | 0.00 | 72 | 1012.8 |
| 20260905143041 | 81 | 340 | 1.0 | 5.0 | 0.00 | 0.00 | 0.00 | 72 | 1012.8 |
| 20260905142940 | 81 | 339 | 3.0 | 5.0 | 0.00 | 0.00 | 0.00 | 72 | 1012.8 |
| 20260905142838 | 81 | 336 | 2.0 | 5.0 | 0.00 | 0.00 | 0.00 | 71 | 1012.8 |
| 20260905142737 | 81 | 337 | 2.0 | 5.0 | 0.00 | 0.00 | 0.00 | 71 | 1012.9 |
| 20260905142639 | 81 | 337 | 1.0 | 5.0 | 0.00 | 0.00 | 0.00 | 70 | 1012.9 |
| 20260905142537 | 81 | 337 | 2.0 | 5.0 | 0.00 | 0.00 | 0.00 | 71 | 1012.9 |
| 20260905142437 | 81 | 336 | 1.0 | 5.0 | 0.00 | 0.00 | 0.00 | 72 | 1012.9 |
| 20260905142334 | 81 | 339 | 1.0 | 5.0 | 0.00 | 0.00 | 0.00 | 71 | 1012.9 |
| 20260905142234 | 81 | 339 | 2.0 | 5.0 | 0.00 | 0.00 | 0.00 | 71 | 1012.9 |
| 20260905142133 | 81 | 339 | 2.0 | 5.0 | 0.00 | 0.00 | 0.00 | 72 | 1012.9 |
| 20260905142032 | 81 | 342 | 0.0 | 3.0 | 0.00 | 0.00 | 0.00 | 73 | 1012.9 |
| 20260905141954 | 81 | 340 | 2.0 | 3.0 | 0.00 | 0.00 | 0.00 | 74 | 1012.9 |
| 20260905141832 | 81 | 343 | 2.0 | 3.0 | 0.00 | 0.00 | 0.00 | 74 | 1012.9 |
| 20260905141732 | 81 | 343 | 1.0 | 3.0 | 0.00 | 0.00 | 0.00 | 74 | 1012.9 |
| 20260905141700 | 81 | 344 | 1.0 | 3.0 | 0.00 | 0.00 | 0.00 | 74 | 1012.9 |
| 20260905141538 | 81 | 346 | 1.0 | 3.0 | 0.00 | 0.00 | 0.00 | 74 | 1012.9 |
| 20260905141437 | 81 | 344 | 0.0 | 3.0 | 0.00 | 0.00 | 0.00 | 73 | 1012.9 |
| 20260905141336 | 81 | 346 | 1.0 | 3.0 | 0.00 | 0.00 | 0.00 | 71 | 1012.9 |
| 20260905141256 | 81 | 347 | 0.0 | 3.0 | 0.00 | 0.00 | 0.00 | 71 | 1013.0 |
| 20260905141137 | 81 | 344 | 1.0 | 3.0 | 0.00 | 0.00 | 0.00 | 70 | 1013.0 |
| 20260905141035 | 81 | 346 | 2.0 | 3.0 | 0.00 | 0.00 | 0.00 | 71 | 1013.0 |
| 20260905140933 | 81 | 346 | 1.0 | 3.0 | 0.00 | 0.00 | 0.00 | 71 | 1013.0 |
| 20260905140834 | 81 | 347 | 1.0 | 3.0 | 0.00 | 0.00 | 0.00 | 71 | 1013.0 |
| 20260905140732 | 80 | 346 | 0.0 | 2.0 | 0.00 | 0.00 | 0.00 | 71 | 1013.0 |
| 20260905140630 | 80 | 346 | 1.0 | 3.0 | 0.00 | 0.00 | 0.00 | 72 | 1013.0 |
| 20260905140533 | 80 | 346 | 1.0 | 3.0 | 0.00 | 0.00 | 0.00 | 72 | 1013.0 |
| 20260905140451 | 80 | 346 | 0.0 | 3.0 | 0.00 | 0.00 | 0.00 | 73 | 1013.0 |
| 20260905140328 | 80 | 347 | 0.0 | 3.0 | 0.00 | 0.00 | 0.00 | 73 | 1013.0 |
| 20260905140248 | 80 | 344 | 0.0 | 3.0 | 0.00 | 0.00 | 0.00 | 74 | 1013.0 |
| 20260905140158 | 80 | 346 | 0.0 | 3.0 | 0.00 | 0.00 | 0.00 | 74 | 1013.0 |
| 20260905140054 | 80 | 346 | 1.0 | 3.0 | 0.00 | 0.00 | 0.00 | 74 | 1013.0 |
| 20260905135930 | 80 | 344 | 1.0 | 3.0 | 0.00 | 0.00 | 0.00 | 75 | 1013.0 |
| 20260905135827 | 80 | 346 | 2.0 | 4.0 | 0.00 | 0.00 | 0.00 | 75 | 1013.0 |
| 20260905135727 | 80 | 346 | 1.0 | 5.0 | 0.00 | 0.00 | 0.00 | 75 | 1013.0 |
| 20260905135624 | 80 | 346 | 0.0 | 5.0 | 0.00 | 0.00 | 0.00 | 75 | 1013.0 |
| 20260905135527 | 80 | 346 | 0.0 | 5.0 | 0.00 | 0.00 | 0.00 | 75 | 1013.0 |
| 20260905135446 | 80 | 346 | 0.0 | 5.0 | 0.00 | 0.00 | 0.00 | 75 | 1013.0 |
| 20260905135404 | 80 | 344 | 0.0 | 5.0 | 0.00 | 0.00 | 0.00 | 75 | 1013.0 |
| 20260905135301 | 79 | 347 | 0.0 | 5.0 | 0.00 | 0.00 | 0.00 | 74 | 1013.0 |
| 20260905135137 | 79 | 346 | 1.0 | 5.0 | 0.00 | 0.00 | 0.00 | 74 | 1013.0 |
| 20260905135035 | 79 | 346 | 2.0 | 5.0 | 0.00 | 0.00 | 0.00 | 74 | 1013.0 |
| 20260905134933 | 79 | 347 | 3.0 | 5.0 | 0.00 | 0.00 | 0.00 | 74 | 1013.0 |
| 20260905134832 | 79 | 347 | 1.0 | 2.0 | 0.00 | 0.00 | 0.00 | 74 | 1013.0 |
| 20260905134754 | 79 | 342 | 0.0 | 2.0 | 0.00 | 0.00 | 0.00 | 75 | 1013.0 |
| 20260905134704 | 79 | 347 | 0.0 | 2.0 | 0.00 | 0.00 | 0.00 | 76 | 1013.0 |
| 20260905134542 | 79 | 347 | 0.0 | 2.0 | 0.00 | 0.00 | 0.00 | 76 | 1013.0 |
| 20260905134441 | 79 | 347 | 0.0 | 2.0 | 0.00 | 0.00 | 0.00 | 75 | 1013.0 |
| 20260905134340 | 79 | 346 | 0.0 | 2.0 | 0.00 | 0.00 | 0.00 | 75 | 1013.0 |
| 20260905134239 | 79 | 344 | 0.0 | 2.0 | 0.00 | 0.00 | 0.00 | 76 | 1013.1 |
| 20260905134136 | 79 | 347 | 0.0 | 2.0 | 0.00 | 0.00 | 0.00 | 77 | 1013.1 |
| 20260905134055 | 79 | 347 | 1.0 | 2.0 | 0.00 | 0.00 | 0.00 | 77 | 1013.1 |
| 20260905133936 | 79 | 347 | 0.0 | 1.0 | 0.00 | 0.00 | 0.00 | 77 | 1013.1 |
| 20260905133835 | 79 | 347 | 0.0 | 0.0 | 0.00 | 0.00 | 0.00 | 77 | 1013.1 |
| 20260905133734 | 79 | 347 | 0.0 | 0.0 | 0.00 | 0.00 | 0.00 | 77 | 1013.1 |
| 20260905133634 | 79 | 347 | 0.0 | 0.0 | 0.00 | 0.00 | 0.00 | 77 | 1013.1 |
| 20260905133531 | 79 | 347 | 0.0 | 0.0 | 0.00 | 0.00 | 0.00 | 77 | 1013.1 |
| 20260905133430 | 79 | 347 | 0.0 | 0.0 | 0.00 | 0.00 | 0.00 | 77 | 1013.1 |
| 20260905133332 | 79 | 347 | 0.0 | 0.0 | 0.00 | 0.00 | 0.00 | 77 | 1013.1 |
| 20260905133241 | 79 | 347 | 0.0 | 0.0 | 0.00 | 0.00 | 0.00 | 77 | 1013.1 |
| 20260905133150 | 79 | 347 | 0.0 | 0.0 | 0.00 | 0.00 | 0.00 | 77 | 1013.1 |
| 20260905133047 | 79 | 347 | 0.0 | 0.0 | 0.00 | 0.00 | 0.00 | 77 | 1013.1 |
| 20260905132924 | 79 | 347 | 0.0 | 0.0 | 0.00 | 0.00 | 0.00 | 77 | 1013.1 |
| 20260905132843 | 79 | 347 | 0.0 | 0.0 | 0.00 | 0.00 | 0.00 | 77 | 1013.1 |
| 20260905132741 | 79 | 347 | 0.0 | 0.0 | 0.00 | 0.00 | 0.00 | 77 | 1013.1 |
| 20260905132639 | 79 | 347 | 0.0 | 0.0 | 0.00 | 0.00 | 0.00 | 77 | 1013.1 |
| 20260905132542 | 79 | 346 | 0.0 | 0.0 | 0.00 | 0.00 | 0.00 | 77 | 1013.1 |
| 20260905132440 | 79 | 347 | 0.0 | 0.0 | 0.00 | 0.00 | 0.00 | 77 | 1013.1 |
| 20260905132359 | 79 | 347 | 0.0 | 0.0 | 0.00 | 0.00 | 0.00 | 77 | 1013.1 |
| 20260905132236 | 79 | 346 | 0.0 | 0.0 | 0.00 | 0.00 | 0.00 | 77 | 1013.1 |
| 20260905132154 | 79 | 346 | 0.0 | 0.0 | 0.00 | 0.00 | 0.00 | 77 | 1013.1 |
| 20260905132032 | 79 | 347 | 0.0 | 0.0 | 0.00 | 0.00 | 0.00 | 77 | 1013.1 |
| 20260905131930 | 79 | 346 | 0.0 | 0.0 | 0.00 | 0.00 | 0.00 | 78 | 1013.1 |
| 20260905131829 | 78 | 347 | 0.0 | 0.0 | 0.00 | 0.00 | 0.00 | 78 | 1013.1 |
| 20260905131735 | 78 | 344 | 0.0 | 0.0 | 0.00 | 0.00 | 0.00 | 78 | 1013.1 |
| 20260905131704 | 78 | 347 | 0.0 | 0.0 | 0.00 | 0.00 | 0.00 | 77 | 1013.1 |
| 20260905131601 | 78 | 347 | 0.0 | 0.0 | 0.00 | 0.00 | 0.00 | 77 | 1013.1 |
| 20260905131437 | 78 | 347 | 0.0 | 1.0 | 0.00 | 0.00 | 0.00 | 79 | 1013.1 |
| 20260905131335 | 78 | 347 | 0.0 | 2.0 | 0.00 | 0.00 | 0.00 | 79 | 1013.1 |
| 20260905131233 | 78 | 347 | 0.0 | 2.0 | 0.00 | 0.00 | 0.00 | 80 | 1013.1 |
| 20260905131132 | 78 | 346 | 0.0 | 2.0 | 0.00 | 0.00 | 0.00 | 80 | 1013.1 |
| 20260905131035 | 78 | 347 | 0.0 | 2.0 | 0.00 | 0.00 | 0.00 | 80 | 1013.1 |
| 20260905130934 | 78 | 347 | 0.0 | 2.0 | 0.00 | 0.00 | 0.00 | 80 | 1013.1 |
| 20260905130835 | 78 | 346 | 0.0 | 2.0 | 0.00 | 0.00 | 0.00 | 80 | 1013.1 |
| 20260905130734 | 78 | 347 | 0.0 | 2.0 | 0.00 | 0.00 | 0.00 | 80 | 1013.1 |
| 20260905130632 | 78 | 347 | 0.0 | 2.0 | 0.00 | 0.00 | 0.00 | 80 | 1013.1 |
| 20260905130530 | 78 | 347 | 1.0 | 2.0 | 0.00 | 0.00 | 0.00 | 80 | 1013.1 |
| 20260905130429 | 78 | 347 | 1.0 | 2.0 | 0.00 | 0.00 | 0.00 | 80 | 1013.1 |
| 20260905130331 | 78 | 347 | 1.0 | 2.0 | 0.00 | 0.00 | 0.00 | 80 | 1013.1 |
| 20260905130241 | 78 | 347 | 0.0 | 0.0 | 0.00 | 0.00 | 0.00 | 80 | 1013.1 |
| 20260905130151 | 78 | 346 | 0.0 | 0.0 | 0.00 | 0.00 | 0.00 | 80 | 1013.1 |
| 20260905130029 | 78 | 347 | 0.0 | 0.0 | 0.00 | 0.00 | 0.00 | 80 | 1013.1 |
| 20260905125946 | 78 | 344 | 0.0 | 0.0 | 0.00 | 0.00 | 0.00 | 80 | 1013.1 |
| 20260905125905 | 78 | 347 | 0.0 | 0.0 | 0.00 | 0.00 | 0.00 | 80 | 1013.1 |
| 20260905125741 | 78 | 344 | 0.0 | 0.0 | 0.00 | 0.00 | 0.00 | 79 | 1013.1 |
| 20260905125700 | 78 | 347 | 0.0 | 0.0 | 0.00 | 0.00 | 0.00 | 79 | 1013.1 |
| 20260905125541 | 78 | 346 | 0.0 | 0.0 | 0.00 | 0.00 | 0.00 | 79 | 1013.1 |
| 20260905125501 | 78 | 347 | 0.0 | 0.0 | 0.00 | 0.00 | 0.00 | 79 | 1013.1 |
| 20260905125357 | 78 | 347 | 0.0 | 0.0 | 0.00 | 0.00 | 0.00 | 79 | 1013.1 |
| 20260905125235 | 78 | 346 | 0.0 | 0.0 | 0.00 | 0.00 | 0.00 | 79 | 1013.1 |
| 20260905125133 | 78 | 347 | 0.0 | 0.0 | 0.00 | 0.00 | 0.00 | 78 | 1013.1 |
| 20260905125052 | 78 | 347 | 0.0 | 0.0 | 0.00 | 0.00 | 0.00 | 78 | 1013.1 |
| 20260905124929 | 78 | 346 | 0.0 | 0.0 | 0.00 | 0.00 | 0.00 | 78 | 1013.1 |
| 20260905124826 | 78 | 347 | 0.0 | 0.0 | 0.00 | 0.00 | 0.00 | 78 | 1013.1 |
| 20260905124729 | 77 | 347 | 0.0 | 0.0 | 0.00 | 0.00 | 0.00 | 78 | 1013.1 |
| 20260905124659 | 77 | 346 | 0.0 | 0.0 | 0.00 | 0.00 | 0.00 | 78 | 1013.1 |
| 20260905124537 | 77 | 346 | 0.0 | 0.0 | 0.00 | 0.00 | 0.00 | 78 | 1013.1 |
| 20260905124435 | 77 | 346 | 0.0 | 0.0 | 0.00 | 0.00 | 0.00 | 78 | 1013.1 |
| 20260905124353 | 77 | 347 | 0.0 | 0.0 | 0.00 | 0.00 | 0.00 | 78 | 1013.1 |
| 20260905124250 | 77 | 344 | 0.0 | 0.0 | 0.00 | 0.00 | 0.00 | 78 | 1013.1 |
| 20260905124128 | 77 | 347 | 0.0 | 0.0 | 0.00 | 0.00 | 0.00 | 79 | 1013.1 |
| 20260905124027 | 77 | 346 | 0.0 | 0.0 | 0.00 | 0.00 | 0.00 | 79 | 1013.1 |
| 20260905123925 | 77 | 347 | 0.0 | 0.0 | 0.00 | 0.00 | 0.00 | 79 | 1013.1 |
| 20260905123828 | 77 | 346 | 0.0 | 0.0 | 0.00 | 0.00 | 0.00 | 79 | 1013.1 |
| 20260905123726 | 77 | 344 | 0.0 | 0.0 | 0.00 | 0.00 | 0.00 | 79 | 1013.1 |
| 20260905123625 | 77 | 347 | 0.0 | 0.0 | 0.00 | 0.00 | 0.00 | 79 | 1013.1 |
| 20260905123542 | 77 | 347 | 0.0 | 0.0 | 0.00 | 0.00 | 0.00 | 79 | 1013.1 |
| 20260905123440 | 77 | 346 | 0.0 | 0.0 | 0.00 | 0.00 | 0.00 | 79 | 1013.1 |
| 20260905123339 | 77 | 344 | 0.0 | 1.0 | 0.00 | 0.00 | 0.00 | 79 | 1013.1 |
| 20260905123238 | 77 | 347 | 0.0 | 2.0 | 0.00 | 0.00 | 0.00 | 79 | 1013.1 |
| 20260905123213 | 77 | 347 | 0.0 | 2.0 | 0.00 | 0.00 | 0.00 | 79 | 1013.1 |
| 20260905123028 | 77 | 347 | 0.0 | 2.0 | 0.00 | 0.00 | 0.00 | 79 | 1013.1 |
| 20260905122927 | 77 | 347 | 0.0 | 3.0 | 0.00 | 0.00 | 0.00 | 78 | 1013.1 |
| 20260905122829 | 77 | 344 | 0.0 | 3.0 | 0.00 | 0.00 | 0.00 | 78 | 1013.1 |
| 20260905122747 | 77 | 347 | 0.0 | 3.0 | 0.00 | 0.00 | 0.00 | 78 | 1012.9 |
| 20260905122644 | 77 | 347 | 0.0 | 3.0 | 0.00 | 0.00 | 0.00 | 78 | 1012.9 |
| 20260905122541 | 77 | 347 | 0.0 | 3.0 | 0.00 | 0.00 | 0.00 | 78 | 1012.9 |
| 20260905122439 | 77 | 347 | 1.0 | 3.0 | 0.00 | 0.00 | 0.00 | 78 | 1012.9 |
| 20260905122401 | 77 | 347 | 1.0 | 3.0 | 0.00 | 0.00 | 0.00 | 78 | 1012.9 |
| 20260905122239 | 77 | 347 | 1.0 | 3.0 | 0.00 | 0.00 | 0.00 | 78 | 1012.9 |
| 20260905122135 | 77 | 346 | 2.0 | 3.0 | 0.00 | 0.00 | 0.00 | 78 | 1012.9 |
| 20260905122032 | 77 | 347 | 2.0 | 3.0 | 0.00 | 0.00 | 0.00 | 78 | 1012.9 |
| 20260905121932 | 77 | 346 | 2.0 | 3.0 | 0.00 | 0.00 | 0.00 | 78 | 1012.9 |
| 20260905121831 | 77 | 347 | 2.0 | 2.0 | 0.00 | 0.00 | 0.00 | 78 | 1012.9 |
| 20260905121730 | 77 | 347 | 0.0 | 1.0 | 0.00 | 0.00 | 0.00 | 78 | 1012.9 |
| 20260905121659 | 77 | 346 | 0.0 | 2.0 | 0.00 | 0.00 | 0.00 | 78 | 1012.9 |
| 20260905121541 | 77 | 346 | 0.0 | 2.0 | 0.00 | 0.00 | 0.00 | 78 | 1012.9 |
| 20260905121440 | 77 | 347 | 0.0 | 2.0 | 0.00 | 0.00 | 0.00 | 78 | 1012.9 |
| 20260905121338 | 77 | 347 | 0.0 | 3.0 | 0.00 | 0.00 | 0.00 | 78 | 1012.9 |
| 20260905121237 | 77 | 347 | 0.0 | 3.0 | 0.00 | 0.00 | 0.00 | 78 | 1012.6 |
| 20260905121135 | 77 | 347 | 0.0 | 3.0 | 0.00 | 0.00 | 0.00 | 78 | 1012.6 |
| 20260905121033 | 77 | 347 | 0.0 | 3.0 | 0.00 | 0.00 | 0.00 | 78 | 1012.6 |
| 20260905120951 | 77 | 347 | 0.0 | 3.0 | 0.00 | 0.00 | 0.00 | 77 | 1012.6 |
| 20260905120832 | 77 | 342 | 1.0 | 3.0 | 0.00 | 0.00 | 0.00 | 77 | 1012.6 |
| 20260905120731 | 77 | 347 | 2.0 | 3.0 | 0.00 | 0.00 | 0.00 | 77 | 1012.6 |
| 20260905120630 | 77 | 347 | 1.0 | 3.0 | 0.00 | 0.00 | 0.00 | 77 | 1012.6 |
| 20260905120529 | 77 | 347 | 2.0 | 3.0 | 0.00 | 0.00 | 0.00 | 77 | 1012.6 |
| 20260905120427 | 77 | 347 | 2.0 | 3.0 | 0.00 | 0.00 | 0.00 | 77 | 1012.6 |
| 20260905120326 | 77 | 347 | 2.0 | 3.0 | 0.00 | 0.00 | 0.00 | 77 | 1012.6 |
| 20260905120239 | 77 | 347 | 2.0 | 3.0 | 0.00 | 0.00 | 0.00 | 77 | 1012.6 |
| 20260905120148 | 77 | 347 | 2.0 | 3.0 | 0.00 | 0.00 | 0.00 | 77 | 1012.6 |
| 20260905120025 | 77 | 347 | 1.0 | 3.0 | 0.00 | 0.00 | 0.00 | 77 | 1012.6 |
| 20260905115943 | 77 | 344 | 2.0 | 3.0 | 0.00 | 0.00 | 0.00 | 77 | 1012.6 |
| 20260905115841 | 77 | 344 | 2.0 | 3.0 | 0.00 | 0.00 | 0.00 | 77 | 1012.6 |
| 20260905115739 | 77 | 347 | 1.0 | 2.0 | 0.00 | 0.00 | 0.00 | 77 | 1012.4 |
| 20260905115638 | 77 | 344 | 2.0 | 2.0 | 0.00 | 0.00 | 0.00 | 77 | 1012.4 |
| 20260905115536 | 77 | 347 | 1.0 | 2.0 | 0.00 | 0.00 | 0.00 | 77 | 1012.4 |
| 20260905115439 | 77 | 347 | 1.0 | 2.0 | 0.00 | 0.00 | 0.00 | 77 | 1012.4 |
| 20260905115338 | 77 | 346 | 1.0 | 3.0 | 0.00 | 0.00 | 0.00 | 76 | 1012.4 |
| 20260905115256 | 77 | 347 | 0.0 | 3.0 | 0.00 | 0.00 | 0.00 | 76 | 1012.4 |
| 20260905115132 | 77 | 343 | 0.0 | 3.0 | 0.00 | 0.00 | 0.00 | 76 | 1012.4 |
| 20260905115031 | 77 | 347 | 1.0 | 3.0 | 0.00 | 0.00 | 0.00 | 76 | 1012.4 |
| 20260905114929 | 77 | 347 | 1.0 | 3.0 | 0.00 | 0.00 | 0.00 | 76 | 1012.4 |
| 20260905114848 | 77 | 346 | 1.0 | 3.0 | 0.00 | 0.00 | 0.00 | 76 | 1012.4 |
| 20260905114736 | 77 | 346 | 2.0 | 3.0 | 0.00 | 0.00 | 0.00 | 76 | 1012.4 |
| 20260905114649 | 77 | 344 | 2.0 | 4.0 | 0.00 | 0.00 | 0.00 | 76 | 1012.4 |
| 20260905114548 | 77 | 344 | 2.0 | 5.0 | 0.00 | 0.00 | 0.00 | 76 | 1012.4 |
| 20260905114425 | 77 | 347 | 2.0 | 5.0 | 0.00 | 0.00 | 0.00 | 76 | 1012.4 |
| 20260905114324 | 77 | 347 | 2.0 | 5.0 | 0.00 | 0.00 | 0.00 | 76 | 1012.4 |
| 20260905114242 | 77 | 347 | 2.0 | 5.0 | 0.00 | 0.00 | 0.00 | 77 | 1012.2 |
| 20260905114141 | 77 | 346 | 3.0 | 5.0 | 0.00 | 0.00 | 0.00 | 77 | 1012.2 |
| 20260905114039 | 77 | 347 | 3.0 | 5.0 | 0.00 | 0.00 | 0.00 | 77 | 1012.2 |
| 20260905113937 | 77 | 346 | 2.0 | 5.0 | 0.00 | 0.00 | 0.00 | 77 | 1012.2 |
| 20260905113859 | 77 | 347 | 3.0 | 5.0 | 0.00 | 0.00 | 0.00 | 77 | 1012.2 |
| 20260905113736 | 77 | 343 | 4.0 | 5.0 | 0.00 | 0.00 | 0.00 | 77 | 1012.2 |
| 20260905113636 | 77 | 349 | 4.0 | 5.0 | 0.00 | 0.00 | 0.00 | 77 | 1012.2 |
| 20260905113535 | 77 | 349 | 4.0 | 5.0 | 0.00 | 0.00 | 0.00 | 77 | 1012.2 |
| 20260905113432 | 77 | 350 | 4.0 | 5.0 | 0.00 | 0.00 | 0.00 | 77 | 1012.2 |
| 20260905113330 | 77 | 347 | 3.0 | 5.0 | 0.00 | 0.00 | 0.00 | 77 | 1012.2 |
| 20260905113229 | 77 | 350 | 4.0 | 5.0 | 0.00 | 0.00 | 0.00 | 77 | 1012.2 |
| 20260905113159 | 77 | 352 | 4.0 | 5.0 | 0.00 | 0.00 | 0.00 | 77 | 1012.2 |
| 20260905113039 | 77 | 353 | 5.0 | 5.0 | 0.00 | 0.00 | 0.00 | 77 | 1012.2 |
| 20260905112957 | 77 | 352 | 4.0 | 5.0 | 0.00 | 0.00 | 0.00 | 77 | 1012.2 |
| 20260905112835 | 77 | 352 | 4.0 | 5.0 | 0.00 | 0.00 | 0.00 | 77 | 1012.2 |
| 20260905112734 | 77 | 352 | 4.0 | 5.0 | 0.00 | 0.00 | 0.00 | 77 | 1012.1 |
| 20260905112631 | 77 | 353 | 4.0 | 5.0 | 0.00 | 0.00 | 0.00 | 77 | 1012.1 |
| 20260905112531 | 77 | 356 | 4.0 | 5.0 | 0.00 | 0.00 | 0.00 | 77 | 1012.1 |
| 20260905112430 | 77 | 356 | 3.0 | 5.0 | 0.00 | 0.00 | 0.00 | 77 | 1012.1 |
| 20260905112332 | 77 | 1 | 3.0 | 5.0 | 0.00 | 0.00 | 0.00 | 77 | 1012.1 |
| 20260905112229 | 77 | 360 | 4.0 | 5.0 | 0.00 | 0.00 | 0.00 | 77 | 1012.1 |
| 20260905112128 | 77 | 1 | 3.0 | 5.0 | 0.00 | 0.00 | 0.00 | 77 | 1012.1 |
| 20260905112026 | 77 | 360 | 3.0 | 5.0 | 0.00 | 0.00 | 0.00 | 77 | 1012.1 |
| 20260905111925 | 77 | 360 | 3.0 | 5.0 | 0.00 | 0.00 | 0.00 | 77 | 1012.1 |
| 20260905111843 | 77 | 1 | 3.0 | 5.0 | 0.00 | 0.00 | 0.00 | 77 | 1012.1 |
| 20260905111726 | 77 | 360 | 3.0 | 3.0 | 0.00 | 0.00 | 0.00 | 77 | 1012.1 |
| 20260905111654 | 77 | 360 | 3.0 | 4.0 | 0.00 | 0.00 | 0.00 | 77 | 1012.1 |
| 20260905111532 | 77 | 360 | 3.0 | 4.0 | 0.00 | 0.00 | 0.00 | 77 | 1012.1 |
| 20260905111431 | 77 | 1 | 3.0 | 4.0 | 0.00 | 0.00 | 0.00 | 76 | 1012.1 |
| 20260905111326 | 77 | 1 | 2.0 | 4.0 | 0.00 | 0.00 | 0.00 | 76 | 1012.1 |
| 20260905111225 | 77 | 1 | 3.0 | 5.0 | 0.00 | 0.00 | 0.00 | 76 | 1011.8 |
| 20260905111143 | 77 | 360 | 3.0 | 5.0 | 0.00 | 0.00 | 0.00 | 76 | 1011.8 |
| 20260905111042 | 77 | 1 | 3.0 | 5.0 | 0.00 | 0.00 | 0.00 | 76 | 1011.8 |
| 20260905110925 | 77 | 360 | 2.0 | 5.0 | 0.00 | 0.00 | 0.00 | 76 | 1011.8 |
| 20260905110843 | 77 | 360 | 3.0 | 5.0 | 0.00 | 0.00 | 0.00 | 76 | 1011.8 |
| 20260905110742 | 77 | 360 | 3.0 | 5.0 | 0.00 | 0.00 | 0.00 | 76 | 1011.8 |
| 20260905110640 | 77 | 1 | 3.0 | 5.0 | 0.00 | 0.00 | 0.00 | 76 | 1011.8 |
| 20260905110559 | 77 | 3 | 3.0 | 5.0 | 0.00 | 0.00 | 0.00 | 76 | 1011.8 |
| 20260905110456 | 77 | 3 | 3.0 | 5.0 | 0.00 | 0.00 | 0.00 | 76 | 1011.8 |
| 20260905110332 | 77 | 4 | 3.0 | 5.0 | 0.00 | 0.00 | 0.00 | 77 | 1011.8 |
| 20260905110252 | 77 | 4 | 3.0 | 5.0 | 0.00 | 0.00 | 0.00 | 77 | 1011.8 |
| 20260905110224 | 77 | 3 | 3.0 | 5.0 | 0.00 | 0.00 | 0.00 | 77 | 1011.8 |
| 20260905110104 | 77 | 6 | 3.0 | 5.0 | 0.00 | 0.00 | 0.00 | 77 | 1011.8 |
| 20260905105941 | 77 | 7 | 3.0 | 5.0 | 0.00 | 0.00 | 0.00 | 77 | 1011.8 |
| 20260905105841 | 77 | 8 | 3.0 | 5.0 | 0.00 | 0.00 | 0.00 | 77 | 1011.8 |
| 20260905105739 | 77 | 7 | 3.0 | 3.0 | 0.00 | 0.00 | 0.00 | 77 | 1011.8 |
| 20260905105658 | 77 | 6 | 2.0 | 5.0 | 0.00 | 0.00 | 0.00 | 76 | 1011.8 |
| 20260905105535 | 77 | 6 | 2.0 | 5.0 | 0.00 | 0.00 | 0.00 | 76 | 1011.8 |
| 20260905105433 | 77 | 8 | 2.0 | 5.0 | 0.00 | 0.00 | 0.00 | 76 | 1011.8 |
| 20260905105337 | 77 | 8 | 2.0 | 5.0 | 0.00 | 0.00 | 0.00 | 77 | 1011.8 |
| 20260905105233 | 77 | 8 | 2.0 | 5.0 | 0.00 | 0.00 | 0.00 | 77 | 1011.8 |
| 20260905105132 | 77 | 6 | 2.0 | 5.0 | 0.00 | 0.00 | 0.00 | 77 | 1011.8 |
| 20260905105031 | 77 | 6 | 2.0 | 5.0 | 0.00 | 0.00 | 0.00 | 77 | 1011.8 |
| 20260905104929 | 77 | 7 | 3.0 | 5.0 | 0.00 | 0.00 | 0.00 | 77 | 1011.8 |
| 20260905104828 | 77 | 10 | 3.0 | 5.0 | 0.00 | 0.00 | 0.00 | 77 | 1011.8 |
| 20260905104726 | 77 | 7 | 4.0 | 5.0 | 0.00 | 0.00 | 0.00 | 77 | 1011.8 |
| 20260905104657 | 77 | 7 | 4.0 | 5.0 | 0.00 | 0.00 | 0.00 | 77 | 1011.8 |
| 20260905104538 | 77 | 7 | 3.0 | 4.0 | 0.00 | 0.00 | 0.00 | 77 | 1011.8 |
| 20260905104436 | 77 | 10 | 3.0 | 5.0 | 0.00 | 0.00 | 0.00 | 76 | 1011.8 |
| 20260905104354 | 77 | 10 | 3.0 | 5.0 | 0.00 | 0.00 | 0.00 | 76 | 1011.8 |
| 20260905104231 | 77 | 10 | 3.0 | 5.0 | 0.00 | 0.00 | 0.00 | 77 | 1011.5 |
| 20260905104151 | 77 | 11 | 3.0 | 5.0 | 0.00 | 0.00 | 0.00 | 77 | 1011.5 |
| 20260905104029 | 77 | 10 | 3.0 | 5.0 | 0.00 | 0.00 | 0.00 | 77 | 1011.5 |
| 20260905103931 | 77 | 11 | 3.0 | 5.0 | 0.00 | 0.00 | 0.00 | 77 | 1011.5 |
| 20260905103832 | 77 | 10 | 3.0 | 5.0 | 0.00 | 0.00 | 0.00 | 77 | 1011.5 |
| 20260905103730 | 77 | 14 | 3.0 | 5.0 | 0.00 | 0.00 | 0.00 | 77 | 1011.5 |
| 20260905103629 | 77 | 13 | 3.0 | 5.0 | 0.00 | 0.00 | 0.00 | 76 | 1011.5 |
| 20260905103527 | 77 | 17 | 3.0 | 5.0 | 0.00 | 0.00 | 0.00 | 76 | 1011.5 |
| 20260905103427 | 77 | 18 | 3.0 | 5.0 | 0.00 | 0.00 | 0.00 | 76 | 1011.5 |
| 20260905103325 | 77 | 45 | 3.0 | 5.0 | 0.00 | 0.00 | 0.00 | 76 | 1011.5 |
| 20260905103255 | 77 | 88 | 3.0 | 5.0 | 0.00 | 0.00 | 0.00 | 76 | 1011.5 |
| 20260905103144 | 77 | 90 | 3.0 | 5.0 | 0.00 | 0.00 | 0.00 | 76 | 1011.5 |
| 20260905103047 | 77 | 90 | 3.0 | 5.0 | 0.00 | 0.00 | 0.00 | 76 | 1011.5 |
| 20260905102924 | 77 | 93 | 3.0 | 5.0 | 0.00 | 0.00 | 0.00 | 76 | 1011.5 |
| 20260905102826 | 77 | 93 | 3.0 | 5.0 | 0.00 | 0.00 | 0.00 | 76 | 1011.5 |
| 20260905102724 | 77 | 93 | 3.0 | 3.0 | 0.00 | 0.00 | 0.00 | 77 | 1011.5 |
| 20260905102643 | 77 | 93 | 3.0 | 3.0 | 0.00 | 0.00 | 0.00 | 77 | 1011.5 |
| 20260905102601 | 77 | 93 | 2.0 | 3.0 | 0.00 | 0.00 | 0.00 | 77 | 1011.5 |
| 20260905102439 | 77 | 90 | 3.0 | 3.0 | 0.00 | 0.00 | 0.00 | 76 | 1011.5 |
| 20260905102337 | 77 | 92 | 3.0 | 3.0 | 0.00 | 0.00 | 0.00 | 76 | 1011.5 |
| 20260905102240 | 77 | 93 | 2.0 | 3.0 | 0.00 | 0.00 | 0.00 | 76 | 1011.5 |
| 20260905102138 | 77 | 95 | 2.0 | 3.0 | 0.00 | 0.00 | 0.00 | 76 | 1011.5 |
| 20260905102037 | 77 | 92 | 3.0 | 3.0 | 0.00 | 0.00 | 0.00 | 76 | 1011.5 |
| 20260905101935 | 77 | 95 | 3.0 | 3.0 | 0.00 | 0.00 | 0.00 | 76 | 1011.5 |
| 20260905101833 | 77 | 92 | 3.0 | 3.0 | 0.00 | 0.00 | 0.00 | 76 | 1011.5 |
| 20260905101731 | 77 | 93 | 2.0 | 3.0 | 0.00 | 0.00 | 0.00 | 76 | 1011.5 |
| 20260905101659 | 77 | 95 | 2.0 | 3.0 | 0.00 | 0.00 | 0.00 | 76 | 1011.5 |
| 20260905101540 | 77 | 95 | 2.0 | 3.0 | 0.00 | 0.00 | 0.00 | 76 | 1011.5 |
| 20260905101439 | 77 | 95 | 2.0 | 3.0 | 0.00 | 0.00 | 0.00 | 77 | 1011.5 |
| 20260905101338 | 77 | 96 | 2.0 | 3.0 | 0.00 | 0.00 | 0.00 | 77 | 1011.5 |
| 20260905101238 | 77 | 96 | 2.0 | 3.0 | 0.00 | 0.00 | 0.00 | 76 | 1011.6 |
| 20260905101136 | 77 | 96 | 2.0 | 3.0 | 0.00 | 0.00 | 0.00 | 76 | 1011.6 |
| 20260905101034 | 77 | 97 | 3.0 | 3.0 | 0.00 | 0.00 | 0.00 | 76 | 1011.6 |
| 20260905100933 | 77 | 96 | 2.0 | 3.0 | 0.00 | 0.00 | 0.00 | 76 | 1011.6 |
| 20260905100836 | 77 | 96 | 2.0 | 3.0 | 0.00 | 0.00 | 0.00 | 76 | 1011.6 |
| 20260905100734 | 77 | 95 | 2.0 | 3.0 | 0.00 | 0.00 | 0.00 | 77 | 1011.6 |
| 20260905100634 | 77 | 96 | 2.0 | 3.0 | 0.00 | 0.00 | 0.00 | 77 | 1011.6 |
| 20260905100535 | 77 | 96 | 1.0 | 3.0 | 0.00 | 0.00 | 0.00 | 77 | 1011.6 |
| 20260905100434 | 77 | 96 | 2.0 | 3.0 | 0.00 | 0.00 | 0.00 | 76 | 1011.6 |
| 20260905100352 | 77 | 96 | 2.0 | 3.0 | 0.00 | 0.00 | 0.00 | 76 | 1011.6 |
| 20260905100301 | 77 | 96 | 2.0 | 3.0 | 0.00 | 0.00 | 0.00 | 76 | 1011.6 |
| 20260905100149 | 77 | 96 | 2.0 | 3.0 | 0.00 | 0.00 | 0.00 | 76 | 1011.6 |
| 20260905100032 | 77 | 96 | 2.0 | 3.0 | 0.00 | 0.00 | 0.00 | 76 | 1011.6 |
| 20260905095951 | 77 | 96 | 2.0 | 3.0 | 0.00 | 0.00 | 0.00 | 77 | 1011.6 |
| 20260905095828 | 77 | 96 | 2.0 | 3.0 | 0.00 | 0.00 | 0.00 | 77 | 1011.6 |
| 20260905095727 | 77 | 96 | 2.0 | 3.0 | 0.00 | 0.00 | 0.00 | 76 | 1011.6 |
| 20260905095625 | 77 | 96 | 2.0 | 3.0 | 0.00 | 0.00 | 0.00 | 77 | 1011.6 |
| 20260905095525 | 77 | 97 | 2.0 | 3.0 | 0.00 | 0.00 | 0.00 | 76 | 1011.6 |
| 20260905095443 | 77 | 96 | 2.0 | 3.0 | 0.00 | 0.00 | 0.00 | 76 | 1011.6 |
| 20260905095325 | 77 | 95 | 2.0 | 3.0 | 0.00 | 0.00 | 0.00 | 76 | 1011.6 |
| 20260905095226 | 77 | 96 | 2.0 | 3.0 | 0.00 | 0.00 | 0.00 | 76 | 1011.6 |
| 20260905095125 | 77 | 96 | 1.0 | 3.0 | 0.00 | 0.00 | 0.00 | 76 | 1011.6 |
| 20260905095043 | 77 | 96 | 2.0 | 3.0 | 0.00 | 0.00 | 0.00 | 76 | 1011.6 |
| 20260905094942 | 77 | 96 | 2.0 | 3.0 | 0.00 | 0.00 | 0.00 | 76 | 1011.6 |
| 20260905094840 | 77 | 96 | 1.0 | 3.0 | 0.00 | 0.00 | 0.00 | 76 | 1011.6 |
| 20260905094759 | 77 | 95 | 2.0 | 3.0 | 0.00 | 0.00 | 0.00 | 77 | 1011.6 |
| 20260905094707 | 77 | 93 | 2.0 | 3.0 | 0.00 | 0.00 | 0.00 | 77 | 1011.6 |
| 20260905094527 | 77 | 95 | 2.0 | 3.0 | 0.00 | 0.00 | 0.00 | 76 | 1011.6 |
| 20260905094426 | 77 | 95 | 2.0 | 3.0 | 0.00 | 0.00 | 0.00 | 76 | 1011.6 |
| 20260905094344 | 77 | 95 | 2.0 | 3.0 | 0.00 | 0.00 | 0.00 | 76 | 1011.6 |
| 20260905094242 | 77 | 93 | 1.0 | 3.0 | 0.00 | 0.00 | 0.00 | 76 | 1011.5 |
| 20260905094122 | 77 | 95 | 0.0 | 0.0 | 0.00 | 0.00 | 0.00 | 76 | 1011.5 |
| 20260905094024 | 77 | 93 | 0.0 | 0.0 | 0.00 | 0.00 | 0.00 | 76 | 1011.5 |
| 20260905093925 | 77 | 93 | 0.0 | 0.0 | 0.00 | 0.00 | 0.00 | 76 | 1011.5 |
| 20260905093844 | 77 | 93 | 0.0 | 0.0 | 0.00 | 0.00 | 0.00 | 76 | 1011.5 |
| 20260905093742 | 77 | 95 | 0.0 | 0.0 | 0.00 | 0.00 | 0.00 | 76 | 1011.5 |
| 20260905093641 | 77 | 93 | 0.0 | 0.0 | 0.00 | 0.00 | 0.00 | 76 | 1011.5 |
| 20260905093559 | 77 | 95 | 0.0 | 0.0 | 0.00 | 0.00 | 0.00 | 76 | 1011.5 |
| 20260905093436 | 77 | 95 | 0.0 | 0.0 | 0.00 | 0.00 | 0.00 | 76 | 1011.5 |
| 20260905093354 | 77 | 95 | 0.0 | 0.0 | 0.00 | 0.00 | 0.00 | 76 | 1011.5 |
| 20260905093242 | 77 | 95 | 0.0 | 0.0 | 0.00 | 0.00 | 0.00 | 76 | 1011.5 |
| 20260905093151 | 77 | 95 | 0.0 | 0.0 | 0.00 | 0.00 | 0.00 | 75 | 1011.5 |
| 20260905093052 | 77 | 93 | 0.0 | 0.0 | 0.00 | 0.00 | 0.00 | 75 | 1011.5 |
| 20260905092929 | 77 | 95 | 0.0 | 0.0 | 0.00 | 0.00 | 0.00 | 75 | 1011.5 |
| 20260905092826 | 77 | 93 | 0.0 | 0.0 | 0.00 | 0.00 | 0.00 | 75 | 1011.5 |
| 20260905092724 | 77 | 95 | 0.0 | 0.0 | 0.00 | 0.00 | 0.00 | 75 | 1011.4 |
| 20260905092643 | 77 | 95 | 0.0 | 0.0 | 0.00 | 0.00 | 0.00 | 75 | 1011.4 |
| 20260905092543 | 77 | 93 | 0.0 | 2.0 | 0.00 | 0.00 | 0.00 | 75 | 1011.4 |
| 20260905092501 | 77 | 93 | 0.0 | 2.0 | 0.00 | 0.00 | 0.00 | 75 | 1011.4 |
| 20260905092337 | 78 | 95 | 0.0 | 2.0 | 0.00 | 0.00 | 0.00 | 75 | 1011.4 |
| 20260905092242 | 78 | 95 | 0.0 | 3.0 | 0.00 | 0.00 | 0.00 | 75 | 1011.4 |
| 20260905092140 | 78 | 95 | 0.0 | 3.0 | 0.00 | 0.00 | 0.00 | 75 | 1011.4 |
| 20260905092038 | 78 | 93 | 0.0 | 3.0 | 0.00 | 0.00 | 0.00 | 75 | 1011.4 |
| 20260905091936 | 78 | 95 | 0.0 | 3.0 | 0.00 | 0.00 | 0.00 | 75 | 1011.4 |
| 20260905091834 | 78 | 95 | 0.0 | 3.0 | 0.00 | 0.00 | 0.00 | 75 | 1011.4 |
| 20260905091743 | 78 | 95 | 1.0 | 3.0 | 0.00 | 0.00 | 0.00 | 75 | 1011.4 |
| 20260905091652 | 78 | 93 | 2.0 | 3.0 | 0.00 | 0.00 | 0.00 | 75 | 1011.4 |
| 20260905091555 | 78 | 93 | 2.0 | 3.0 | 0.00 | 0.00 | 0.00 | 75 | 1011.4 |
| 20260905091431 | 78 | 95 | 2.0 | 3.0 | 0.00 | 0.00 | 0.00 | 75 | 1011.4 |
| 20260905091350 | 78 | 95 | 2.0 | 3.0 | 0.00 | 0.00 | 0.00 | 75 | 1011.4 |
| 20260905091229 | 78 | 96 | 2.0 | 3.0 | 0.00 | 0.00 | 0.00 | 75 | 1011.4 |
| 20260905091127 | 78 | 95 | 2.0 | 3.0 | 0.00 | 0.00 | 0.00 | 75 | 1011.4 |
| 20260905091025 | 78 | 96 | 2.0 | 3.0 | 0.00 | 0.00 | 0.00 | 75 | 1011.4 |
| 20260905090924 | 78 | 96 | 2.0 | 3.0 | 0.00 | 0.00 | 0.00 | 75 | 1011.4 |
| 20260905090828 | 78 | 95 | 2.0 | 3.0 | 0.00 | 0.00 | 0.00 | 75 | 1011.4 |
| 20260905090724 | 78 | 95 | 1.0 | 2.0 | 0.00 | 0.00 | 0.00 | 75 | 1011.4 |
| 20260905090643 | 78 | 96 | 1.0 | 2.0 | 0.00 | 0.00 | 0.00 | 75 | 1011.4 |
| 20260905090541 | 78 | 95 | 1.0 | 2.0 | 0.00 | 0.00 | 0.00 | 75 | 1011.4 |
| 20260905090440 | 78 | 95 | 1.0 | 2.0 | 0.00 | 0.00 | 0.00 | 75 | 1011.4 |
| 20260905090358 | 78 | 96 | 1.0 | 2.0 | 0.00 | 0.00 | 0.00 | 75 | 1011.4 |
| 20260905090236 | 78 | 95 | 1.0 | 2.0 | 0.00 | 0.00 | 0.00 | 75 | 1011.4 |
| 20260905090206 | 78 | 92 | 1.0 | 2.0 | 0.00 | 0.00 | 0.00 | 75 | 1011.4 |
| 20260905085943 | 78 | 95 | 0.0 | 2.0 | 0.00 | 0.00 | 0.00 | 75 | 1011.4 |
| 20260905085843 | 78 | 93 | 0.0 | 2.0 | 0.00 | 0.00 | 0.00 | 75 | 1011.4 |
| 20260905085742 | 78 | 95 | 0.0 | 2.0 | 0.00 | 0.00 | 0.00 | 75 | 1011.4 |
| 20260905085702 | 78 | 95 | 0.0 | 2.0 | 0.00 | 0.00 | 0.00 | 76 | 1011.4 |
| 20260905085539 | 78 | 95 | 0.0 | 2.0 | 0.00 | 0.00 | 0.00 | 76 | 1011.4 |
| 20260905085436 | 78 | 93 | 2.0 | 2.0 | 0.00 | 0.00 | 0.00 | 76 | 1011.4 |
| 20260905085334 | 78 | 95 | 2.0 | 2.0 | 0.00 | 0.00 | 0.00 | 76 | 1011.4 |
| 20260905085252 | 78 | 95 | 2.0 | 2.0 | 0.00 | 0.00 | 0.00 | 76 | 1011.4 |
| 20260905085132 | 78 | 96 | 1.0 | 2.0 | 0.00 | 0.00 | 0.00 | 76 | 1011.4 |
| 20260905085031 | 78 | 96 | 0.0 | 1.0 | 0.00 | 0.00 | 0.00 | 76 | 1011.4 |
| 20260905084930 | 78 | 96 | 0.0 | 0.0 | 0.00 | 0.00 | 0.00 | 76 | 1011.4 |
| 20260905084829 | 78 | 96 | 0.0 | 0.0 | 0.00 | 0.00 | 0.00 | 76 | 1011.4 |
| 20260905084738 | 78 | 95 | 0.0 | 0.0 | 0.00 | 0.00 | 0.00 | 76 | 1011.4 |
| 20260905084647 | 78 | 96 | 0.0 | 0.0 | 0.00 | 0.00 | 0.00 | 76 | 1011.4 |
| 20260905084525 | 78 | 96 | 0.0 | 0.0 | 0.00 | 0.00 | 0.00 | 76 | 1011.4 |
| 20260905084428 | 78 | 97 | 0.0 | 0.0 | 0.00 | 0.00 | 0.00 | 76 | 1011.4 |
| 20260905084328 | 78 | 95 | 0.0 | 0.0 | 0.00 | 0.00 | 0.00 | 76 | 1011.4 |
| 20260905084227 | 78 | 96 | 0.0 | 0.0 | 0.00 | 0.00 | 0.00 | 76 | 1011.4 |
| 20260905084145 | 78 | 96 | 0.0 | 0.0 | 0.00 | 0.00 | 0.00 | 76 | 1011.4 |
| 20260905084026 | 78 | 95 | 0.0 | 1.0 | 0.00 | 0.00 | 0.00 | 75 | 1011.4 |
| 20260905083925 | 78 | 96 | 0.0 | 1.0 | 0.00 | 0.00 | 0.00 | 75 | 1011.4 |
| 20260905083842 | 78 | 96 | 0.0 | 1.0 | 0.00 | 0.00 | 0.00 | 75 | 1011.4 |
| 20260905083739 | 78 | 93 | 0.0 | 1.0 | 0.00 | 0.00 | 0.00 | 75 | 1011.4 |
| 20260905083642 | 78 | 95 | 0.0 | 1.0 | 0.00 | 0.00 | 0.00 | 75 | 1011.4 |
| 20260905083540 | 78 | 95 | 0.0 | 1.0 | 0.00 | 0.00 | 0.00 | 75 | 1011.4 |
| 20260905083438 | 78 | 96 | 0.0 | 1.0 | 0.00 | 0.00 | 0.00 | 75 | 1011.4 |
| 20260905083338 | 78 | 96 | 0.0 | 1.0 | 0.00 | 0.00 | 0.00 | 75 | 1011.4 |
| 20260905083256 | 78 | 96 | 1.0 | 1.0 | 0.00 | 0.00 | 0.00 | 75 | 1011.4 |
| 20260905083228 | 78 | 97 | 0.0 | 1.0 | 0.00 | 0.00 | 0.00 | 76 | 1011.4 |
| 20260905083103 | 78 | 96 | 0.0 | 0.0 | 0.00 | 0.00 | 0.00 | 76 | 1011.4 |
| 20260905082941 | 78 | 95 | 0.0 | 0.0 | 0.00 | 0.00 | 0.00 | 76 | 1011.4 |
| 20260905082904 | 78 | 96 | 0.0 | 0.0 | 0.00 | 0.00 | 0.00 | 76 | 1011.4 |
| 20260905082741 | 78 | 96 | 0.0 | 0.0 | 0.00 | 0.00 | 0.00 | 76 | 1011.4 |
| 20260905082639 | 78 | 96 | 0.0 | 0.0 | 0.00 | 0.00 | 0.00 | 76 | 1011.4 |
| 20260905082556 | 78 | 93 | 0.0 | 0.0 | 0.00 | 0.00 | 0.00 | 76 | 1011.4 |
| 20260905082433 | 78 | 96 | 0.0 | 0.0 | 0.00 | 0.00 | 0.00 | 76 | 1011.4 |
| 20260905082331 | 78 | 96 | 0.0 | 0.0 | 0.00 | 0.00 | 0.00 | 76 | 1011.4 |
| 20260905082230 | 78 | 96 | 0.0 | 0.0 | 0.00 | 0.00 | 0.00 | 76 | 1011.4 |
| 20260905082133 | 78 | 95 | 0.0 | 0.0 | 0.00 | 0.00 | 0.00 | 76 | 1011.4 |
| 20260905082051 | 78 | 95 | 0.0 | 0.0 | 0.00 | 0.00 | 0.00 | 76 | 1011.4 |
| 20260905081930 | 78 | 95 | 0.0 | 0.0 | 0.00 | 0.00 | 0.00 | 75 | 1011.4 |
| 20260905081828 | 78 | 96 | 0.0 | 0.0 | 0.00 | 0.00 | 0.00 | 75 | 1011.4 |
| 20260905081738 | 78 | 96 | 0.0 | 0.0 | 0.00 | 0.00 | 0.00 | 75 | 1011.4 |
| 20260905081647 | 78 | 93 | 0.0 | 0.0 | 0.00 | 0.00 | 0.00 | 75 | 1011.4 |
| 20260905081546 | 78 | 97 | 0.0 | 0.0 | 0.00 | 0.00 | 0.00 | 75 | 1011.4 |
| 20260905081444 | 78 | 92 | 0.0 | 0.0 | 0.00 | 0.00 | 0.00 | 75 | 1011.4 |
| 20260905081402 | 78 | 93 | 0.0 | 0.0 | 0.00 | 0.00 | 0.00 | 75 | 1011.4 |
| 20260905081224 | 78 | 97 | 0.0 | 0.0 | 0.00 | 0.00 | 0.00 | 75 | 1011.9 |
| 20260905081142 | 78 | 93 | 0.0 | 0.0 | 0.00 | 0.00 | 0.00 | 75 | 1011.9 |
| 20260905081042 | 78 | 96 | 0.0 | 0.0 | 0.00 | 0.00 | 0.00 | 75 | 1011.9 |
| 20260905080940 | 78 | 96 | 0.0 | 1.0 | 0.00 | 0.00 | 0.00 | 75 | 1011.9 |
| 20260905080859 | 78 | 96 | 0.0 | 1.0 | 0.00 | 0.00 | 0.00 | 75 | 1011.9 |
| 20260905080736 | 78 | 95 | 0.0 | 2.0 | 0.00 | 0.00 | 0.00 | 75 | 1011.9 |
| 20260905080654 | 78 | 96 | 0.0 | 2.0 | 0.00 | 0.00 | 0.00 | 75 | 1011.9 |
| 20260905080532 | 78 | 96 | 0.0 | 2.0 | 0.00 | 0.00 | 0.00 | 75 | 1011.9 |
| 20260905080433 | 78 | 96 | 0.0 | 2.0 | 0.00 | 0.00 | 0.00 | 75 | 1011.9 |
| 20260905080332 | 78 | 96 | 0.0 | 2.0 | 0.00 | 0.00 | 0.00 | 75 | 1011.9 |
| 20260905080301 | 78 | 96 | 0.0 | 2.0 | 0.00 | 0.00 | 0.00 | 75 | 1011.9 |
| 20260905080151 | 78 | 96 | 0.0 | 2.0 | 0.00 | 0.00 | 0.00 | 75 | 1011.9 |
| 20260905080026 | 78 | 97 | 1.0 | 2.0 | 0.00 | 0.00 | 0.00 | 75 | 1011.9 |
| 20260905075925 | 78 | 95 | 1.0 | 3.0 | 0.00 | 0.00 | 0.00 | 75 | 1011.9 |
| 20260905075843 | 78 | 96 | 1.0 | 3.0 | 0.00 | 0.00 | 0.00 | 76 | 1011.9 |
| 20260905075741 | 78 | 95 | 0.0 | 3.0 | 0.00 | 0.00 | 0.00 | 76 | 1011.9 |
| 20260905075639 | 78 | 96 | 0.0 | 3.0 | 0.00 | 0.00 | 0.00 | 76 | 1011.9 |
| 20260905075543 | 78 | 96 | 0.0 | 3.0 | 0.00 | 0.00 | 0.00 | 76 | 1011.9 |
| 20260905075501 | 78 | 96 | 1.0 | 3.0 | 0.00 | 0.00 | 0.00 | 76 | 1011.9 |
| 20260905075338 | 78 | 97 | 1.0 | 3.0 | 0.00 | 0.00 | 0.00 | 76 | 1011.9 |
| 20260905075236 | 78 | 96 | 1.0 | 3.0 | 0.00 | 0.00 | 0.00 | 76 | 1011.9 |
| 20260905075134 | 78 | 95 | 2.0 | 3.0 | 0.00 | 0.00 | 0.00 | 76 | 1011.9 |
| 20260905075032 | 78 | 96 | 0.0 | 2.0 | 0.00 | 0.00 | 0.00 | 76 | 1011.9 |
| 20260905074932 | 78 | 96 | 0.0 | 2.0 | 0.00 | 0.00 | 0.00 | 76 | 1011.9 |
| 20260905074854 | 78 | 96 | 0.0 | 2.0 | 0.00 | 0.00 | 0.00 | 76 | 1011.9 |
| 20260905074733 | 78 | 96 | 0.0 | 2.0 | 0.00 | 0.00 | 0.00 | 76 | 1011.9 |
| 20260905074702 | 78 | 96 | 0.0 | 2.0 | 0.00 | 0.00 | 0.00 | 76 | 1011.9 |
| 20260905074540 | 78 | 95 | 0.0 | 2.0 | 0.00 | 0.00 | 0.00 | 76 | 1011.9 |
| 20260905074459 | 78 | 96 | 0.0 | 2.0 | 0.00 | 0.00 | 0.00 | 75 | 1011.9 |
| 20260905074357 | 78 | 96 | 0.0 | 2.0 | 0.00 | 0.00 | 0.00 | 75 | 1011.9 |
| 20260905074234 | 78 | 96 | 1.0 | 2.0 | 0.00 | 0.00 | 0.00 | 75 | 1012.0 |
| 20260905074154 | 78 | 96 | 1.0 | 2.0 | 0.00 | 0.00 | 0.00 | 75 | 1012.0 |
| 20260905074032 | 78 | 96 | 1.0 | 2.0 | 0.00 | 0.00 | 0.00 | 75 | 1012.0 |
| 20260905073934 | 78 | 96 | 0.0 | 1.0 | 0.00 | 0.00 | 0.00 | 74 | 1012.0 |
| 20260905073832 | 78 | 96 | 0.0 | 0.0 | 0.00 | 0.00 | 0.00 | 74 | 1012.0 |
| 20260905073731 | 78 | 96 | 0.0 | 0.0 | 0.00 | 0.00 | 0.00 | 74 | 1012.0 |
| 20260905073629 | 79 | 96 | 0.0 | 0.0 | 0.00 | 0.00 | 0.00 | 74 | 1012.0 |
| 20260905073529 | 79 | 96 | 0.0 | 0.0 | 0.00 | 0.00 | 0.00 | 74 | 1012.0 |
| 20260905073428 | 79 | 96 | 0.0 | 0.0 | 0.00 | 0.00 | 0.00 | 74 | 1012.0 |
| 20260905073327 | 79 | 96 | 0.0 | 0.0 | 0.00 | 0.00 | 0.00 | 74 | 1012.0 |
| 20260905073203 | 79 | 96 | 0.0 | 0.0 | 0.00 | 0.00 | 0.00 | 74 | 1012.0 |
| 20260905073040 | 79 | 96 | 0.0 | 0.0 | 0.00 | 0.00 | 0.00 | 74 | 1012.0 |
| 20260905072939 | 79 | 96 | 0.0 | 0.0 | 0.00 | 0.00 | 0.00 | 74 | 1012.0 |
| 20260905072835 | 79 | 95 | 0.0 | 0.0 | 0.00 | 0.00 | 0.00 | 74 | 1012.0 |
| 20260905072733 | 79 | 96 | 0.0 | 0.0 | 0.00 | 0.00 | 0.00 | 75 | 1012.0 |
| 20260905072632 | 79 | 96 | 0.0 | 0.0 | 0.00 | 0.00 | 0.00 | 75 | 1012.0 |
| 20260905072534 | 79 | 96 | 0.0 | 0.0 | 0.00 | 0.00 | 0.00 | 75 | 1012.0 |
| 20260905072433 | 79 | 96 | 0.0 | 0.0 | 0.00 | 0.00 | 0.00 | 75 | 1012.0 |
| 20260905072331 | 79 | 96 | 0.0 | 0.0 | 0.00 | 0.00 | 0.00 | 74 | 1012.0 |
| 20260905072228 | 79 | 96 | 0.0 | 0.0 | 0.00 | 0.00 | 0.00 | 74 | 1012.0 |
| 20260905072128 | 79 | 96 | 0.0 | 2.0 | 0.00 | 0.00 | 0.00 | 74 | 1012.0 |
| 20260905072047 | 79 | 95 | 0.0 | 2.0 | 0.00 | 0.00 | 0.00 | 74 | 1012.0 |
| 20260905071924 | 79 | 96 | 0.0 | 2.0 | 0.00 | 0.00 | 0.00 | 74 | 1012.0 |
| 20260905071826 | 79 | 96 | 0.0 | 3.0 | 0.00 | 0.00 | 0.00 | 74 | 1012.0 |
| 20260905071725 | 79 | 96 | 0.0 | 3.0 | 0.00 | 0.00 | 0.00 | 74 | 1012.0 |
| 20260905071656 | 79 | 92 | 0.0 | 3.0 | 0.00 | 0.00 | 0.00 | 74 | 1012.0 |
| 20260905071533 | 79 | 93 | 0.0 | 3.0 | 0.00 | 0.00 | 0.00 | 74 | 1012.0 |
| 20260905071431 | 79 | 95 | 0.0 | 3.0 | 0.00 | 0.00 | 0.00 | 74 | 1012.0 |
| 20260905071330 | 79 | 95 | 0.0 | 3.0 | 0.00 | 0.00 | 0.00 | 74 | 1012.0 |
| 20260905071247 | 79 | 96 | 2.0 | 3.0 | 0.00 | 0.00 | 0.00 | 74 | 1012.0 |
| 20260905071125 | 79 | 95 | 2.0 | 3.0 | 0.00 | 0.00 | 0.00 | 74 | 1012.0 |
| 20260905071027 | 79 | 95 | 2.0 | 3.0 | 0.00 | 0.00 | 0.00 | 74 | 1012.0 |
| 20260905070926 | 79 | 93 | 2.0 | 3.0 | 0.00 | 0.00 | 0.00 | 74 | 1012.0 |
| 20260905070843 | 79 | 96 | 1.0 | 3.0 | 0.00 | 0.00 | 0.00 | 74 | 1012.0 |
| 20260905070743 | 79 | 96 | 1.0 | 3.0 | 0.00 | 0.00 | 0.00 | 74 | 1012.0 |
| 20260905070701 | 79 | 95 | 1.0 | 3.0 | 0.00 | 0.00 | 0.00 | 74 | 1012.0 |
| 20260905070539 | 79 | 93 | 2.0 | 3.0 | 0.00 | 0.00 | 0.00 | 74 | 1012.0 |
| 20260905070435 | 79 | 95 | 2.0 | 3.0 | 0.00 | 0.00 | 0.00 | 74 | 1012.0 |
| 20260905070354 | 79 | 96 | 2.0 | 3.0 | 0.00 | 0.00 | 0.00 | 74 | 1012.0 |
| 20260905070235 | 79 | 96 | 2.0 | 3.0 | 0.00 | 0.00 | 0.00 | 74 | 1012.0 |
| 20260905070206 | 79 | 95 | 2.0 | 3.0 | 0.00 | 0.00 | 0.00 | 74 | 1012.0 |
| 20260905065941 | 79 | 96 | 1.0 | 3.0 | 0.00 | 0.00 | 0.00 | 74 | 1012.0 |
| 20260905065839 | 79 | 96 | 0.0 | 3.0 | 0.00 | 0.00 | 0.00 | 74 | 1012.0 |
| 20260905065758 | 79 | 96 | 0.0 | 3.0 | 0.00 | 0.00 | 0.00 | 73 | 1012.1 |
| 20260905065655 | 79 | 96 | 0.0 | 3.0 | 0.00 | 0.00 | 0.00 | 74 | 1012.1 |
| 20260905065554 | 79 | 96 | 0.0 | 3.0 | 0.00 | 0.00 | 0.00 | 73 | 1012.1 |
| 20260905065430 | 79 | 96 | 0.0 | 3.0 | 0.00 | 0.00 | 0.00 | 73 | 1012.1 |
| 20260905065333 | 79 | 95 | 0.0 | 3.0 | 0.00 | 0.00 | 0.00 | 73 | 1012.1 |
| 20260905065231 | 79 | 95 | 2.0 | 3.0 | 0.00 | 0.00 | 0.00 | 73 | 1012.1 |
| 20260905065130 | 79 | 93 | 1.0 | 3.0 | 0.00 | 0.00 | 0.00 | 73 | 1012.1 |
| 20260905065028 | 79 | 95 | 2.0 | 3.0 | 0.00 | 0.00 | 0.00 | 73 | 1012.1 |
| 20260905064927 | 79 | 93 | 2.0 | 3.0 | 0.00 | 0.00 | 0.00 | 73 | 1012.1 |
| 20260905064824 | 79 | 96 | 2.0 | 3.0 | 0.00 | 0.00 | 0.00 | 73 | 1012.1 |
| 20260905064727 | 79 | 96 | 2.0 | 3.0 | 0.00 | 0.00 | 0.00 | 73 | 1012.1 |
| 20260905064659 | 79 | 96 | 2.0 | 3.0 | 0.00 | 0.00 | 0.00 | 74 | 1012.1 |
| 20260905064556 | 79 | 96 | 2.0 | 3.0 | 0.00 | 0.00 | 0.00 | 74 | 1012.1 |
| 20260905064434 | 79 | 95 | 1.0 | 3.0 | 0.00 | 0.00 | 0.00 | 74 | 1012.1 |
| 20260905064333 | 79 | 95 | 1.0 | 3.0 | 0.00 | 0.00 | 0.00 | 74 | 1012.1 |
| 20260905064231 | 79 | 95 | 2.0 | 3.0 | 0.00 | 0.00 | 0.00 | 74 | 1012.3 |
| 20260905064150 | 79 | 93 | 2.0 | 3.0 | 0.00 | 0.00 | 0.00 | 74 | 1012.3 |
| 20260905064029 | 79 | 95 | 1.0 | 3.0 | 0.00 | 0.00 | 0.00 | 74 | 1012.3 |
| 20260905063929 | 79 | 95 | 1.0 | 3.0 | 0.00 | 0.00 | 0.00 | 74 | 1012.3 |
| 20260905063830 | 79 | 95 | 2.0 | 3.0 | 0.00 | 0.00 | 0.00 | 74 | 1012.3 |
| 20260905063728 | 79 | 93 | 1.0 | 2.0 | 0.00 | 0.00 | 0.00 | 74 | 1012.3 |
| 20260905063627 | 79 | 93 | 2.0 | 2.0 | 0.00 | 0.00 | 0.00 | 74 | 1012.3 |
| 20260905063525 | 79 | 93 | 1.0 | 2.0 | 0.00 | 0.00 | 0.00 | 74 | 1012.3 |
| 20260905063424 | 79 | 93 | 0.0 | 2.0 | 0.00 | 0.00 | 0.00 | 74 | 1012.3 |
| 20260905063343 | 79 | 93 | 0.0 | 2.0 | 0.00 | 0.00 | 0.00 | 74 | 1012.3 |
| 20260905063236 | 79 | 92 | 0.0 | 2.0 | 0.00 | 0.00 | 0.00 | 73 | 1012.3 |
| 20260905063147 | 79 | 93 | 0.0 | 2.0 | 0.00 | 0.00 | 0.00 | 73 | 1012.3 |
| 20260905063042 | 79 | 92 | 1.0 | 2.0 | 0.00 | 0.00 | 0.00 | 73 | 1012.3 |
| 20260905062941 | 79 | 93 | 1.0 | 2.0 | 0.00 | 0.00 | 0.00 | 73 | 1012.3 |
| 20260905062839 | 79 | 93 | 1.0 | 2.0 | 0.00 | 0.00 | 0.00 | 73 | 1012.3 |
| 20260905062738 | 79 | 93 | 1.0 | 3.0 | 0.00 | 0.00 | 0.00 | 73 | 1012.4 |
| 20260905062636 | 79 | 93 | 2.0 | 3.0 | 0.00 | 0.00 | 0.00 | 73 | 1012.4 |
| 20260905062534 | 79 | 93 | 2.0 | 3.0 | 0.00 | 0.00 | 0.00 | 73 | 1012.4 |
| 20260905062436 | 79 | 93 | 2.0 | 3.0 | 0.00 | 0.00 | 0.00 | 73 | 1012.4 |
| 20260905062355 | 79 | 95 | 1.0 | 3.0 | 0.00 | 0.00 | 0.00 | 72 | 1012.4 |
| 20260905062232 | 79 | 93 | 0.0 | 3.0 | 0.00 | 0.00 | 0.00 | 72 | 1012.4 |
| 20260905062131 | 79 | 93 | 1.0 | 3.0 | 0.00 | 0.00 | 0.00 | 72 | 1012.4 |
| 20260905062029 | 79 | 93 | 1.0 | 3.0 | 0.00 | 0.00 | 0.00 | 72 | 1012.4 |
| 20260905061928 | 79 | 93 | 1.0 | 3.0 | 0.00 | 0.00 | 0.00 | 72 | 1012.4 |
| 20260905061826 | 79 | 93 | 2.0 | 3.0 | 0.00 | 0.00 | 0.00 | 72 | 1012.4 |
| 20260905061738 | 79 | 93 | 2.0 | 2.0 | 0.00 | 0.00 | 0.00 | 72 | 1012.4 |
| 20260905061647 | 79 | 93 | 1.0 | 2.0 | 0.00 | 0.00 | 0.00 | 72 | 1012.4 |
| 20260905061525 | 79 | 93 | 0.0 | 2.0 | 0.00 | 0.00 | 0.00 | 72 | 1012.4 |
| 20260905061424 | 79 | 92 | 1.0 | 3.0 | 0.00 | 0.00 | 0.00 | 72 | 1012.4 |
| 20260905061343 | 79 | 96 | 0.0 | 3.0 | 0.00 | 0.00 | 0.00 | 72 | 1012.4 |
| 20260905061241 | 79 | 96 | 0.0 | 3.0 | 0.00 | 0.00 | 0.00 | 72 | 1012.4 |
| 20260905061139 | 80 | 97 | 0.0 | 3.0 | 0.00 | 0.00 | 0.00 | 73 | 1012.4 |
| 20260905061038 | 80 | 95 | 0.0 | 3.0 | 0.00 | 0.00 | 0.00 | 73 | 1012.4 |
| 20260905061001 | 80 | 96 | 0.0 | 3.0 | 0.00 | 0.00 | 0.00 | 73 | 1012.4 |
| 20260905060837 | 80 | 97 | 1.0 | 3.0 | 0.00 | 0.00 | 0.00 | 73 | 1012.4 |
| 20260905060736 | 80 | 97 | 1.0 | 3.0 | 0.00 | 0.00 | 0.00 | 73 | 1012.4 |
| 20260905060655 | 80 | 96 | 2.0 | 3.0 | 0.00 | 0.00 | 0.00 | 73 | 1012.4 |
| 20260905060531 | 80 | 96 | 1.0 | 3.0 | 0.00 | 0.00 | 0.00 | 73 | 1012.4 |
| 20260905060430 | 80 | 97 | 2.0 | 3.0 | 0.00 | 0.00 | 0.00 | 72 | 1012.4 |
| 20260905060326 | 80 | 97 | 2.0 | 3.0 | 0.00 | 0.00 | 0.00 | 72 | 1012.4 |
| 20260905060236 | 80 | 97 | 2.0 | 3.0 | 0.00 | 0.00 | 0.00 | 72 | 1012.4 |
| 20260905060148 | 80 | 99 | 1.0 | 3.0 | 0.00 | 0.00 | 0.00 | 72 | 1012.4 |
| 20260905060025 | 80 | 97 | 1.0 | 3.0 | 0.00 | 0.00 | 0.00 | 72 | 1012.4 |
| 20260905055943 | 80 | 95 | 1.0 | 3.0 | 0.00 | 0.00 | 0.00 | 72 | 1012.4 |
| 20260905055842 | 80 | 97 | 1.0 | 3.0 | 0.00 | 0.00 | 0.00 | 72 | 1012.4 |
| 20260905055740 | 80 | 96 | 2.0 | 3.0 | 0.00 | 0.00 | 0.00 | 72 | 1012.5 |
| 20260905055639 | 80 | 97 | 2.0 | 3.0 | 0.00 | 0.00 | 0.00 | 72 | 1012.5 |
| 20260905055538 | 80 | 97 | 1.0 | 3.0 | 0.00 | 0.00 | 0.00 | 72 | 1012.5 |
| 20260905055440 | 80 | 97 | 1.0 | 3.0 | 0.00 | 0.00 | 0.00 | 72 | 1012.5 |
| 20260905055339 | 80 | 97 | 2.0 | 4.0 | 0.00 | 0.00 | 0.00 | 72 | 1012.5 |
| 20260905055257 | 80 | 97 | 2.0 | 4.0 | 0.00 | 0.00 | 0.00 | 72 | 1012.5 |
| 20260905055133 | 80 | 97 | 2.0 | 4.0 | 0.00 | 0.00 | 0.00 | 72 | 1012.5 |
| 20260905055032 | 80 | 97 | 2.0 | 4.0 | 0.00 | 0.00 | 0.00 | 72 | 1012.5 |
| 20260905054930 | 80 | 97 | 3.0 | 4.0 | 0.00 | 0.00 | 0.00 | 73 | 1012.5 |
| 20260905054828 | 80 | 99 | 3.0 | 4.0 | 0.00 | 0.00 | 0.00 | 73 | 1012.5 |
| 20260905054735 | 80 | 97 | 2.0 | 4.0 | 0.00 | 0.00 | 0.00 | 72 | 1012.5 |
| 20260905054649 | 80 | 97 | 2.0 | 5.0 | 0.00 | 0.00 | 0.00 | 72 | 1012.5 |
| 20260905054546 | 80 | 97 | 3.0 | 5.0 | 0.00 | 0.00 | 0.00 | 72 | 1012.5 |
| 20260905054505 | 80 | 97 | 2.0 | 5.0 | 0.00 | 0.00 | 0.00 | 72 | 1012.5 |
| 20260905054403 | 80 | 97 | 2.0 | 5.0 | 0.00 | 0.00 | 0.00 | 72 | 1012.5 |
| 20260905054240 | 80 | 97 | 2.0 | 5.0 | 0.00 | 0.00 | 0.00 | 72 | 1012.5 |
| 20260905054138 | 80 | 95 | 2.0 | 5.0 | 0.00 | 0.00 | 0.00 | 72 | 1012.5 |
| 20260905054037 | 80 | 97 | 2.0 | 5.0 | 0.00 | 0.00 | 0.00 | 72 | 1012.5 |
| 20260905053935 | 80 | 97 | 3.0 | 5.0 | 0.00 | 0.00 | 0.00 | 72 | 1012.5 |
| 20260905053837 | 80 | 96 | 4.0 | 5.0 | 0.00 | 0.00 | 0.00 | 72 | 1012.5 |
| 20260905053735 | 80 | 97 | 4.0 | 5.0 | 0.00 | 0.00 | 0.00 | 73 | 1012.5 |
| 20260905053634 | 80 | 97 | 3.0 | 5.0 | 0.00 | 0.00 | 0.00 | 72 | 1012.5 |
| 20260905053532 | 80 | 93 | 4.0 | 5.0 | 0.00 | 0.00 | 0.00 | 72 | 1012.5 |
| 20260905053431 | 80 | 97 | 4.0 | 5.0 | 0.00 | 0.00 | 0.00 | 72 | 1012.5 |
| 20260905053328 | 80 | 90 | 4.0 | 5.0 | 0.00 | 0.00 | 0.00 | 72 | 1012.5 |
| 20260905053227 | 80 | 97 | 3.0 | 5.0 | 0.00 | 0.00 | 0.00 | 72 | 1012.5 |
| 20260905053157 | 80 | 96 | 3.0 | 5.0 | 0.00 | 0.00 | 0.00 | 72 | 1012.5 |
| 20260905053038 | 80 | 95 | 3.0 | 5.0 | 0.00 | 0.00 | 0.00 | 72 | 1012.5 |
| 20260905052937 | 80 | 96 | 2.0 | 5.0 | 0.00 | 0.00 | 0.00 | 72 | 1012.5 |
| 20260905052834 | 80 | 96 | 2.0 | 5.0 | 0.00 | 0.00 | 0.00 | 72 | 1012.5 |
| 20260905052733 | 80 | 96 | 3.0 | 5.0 | 0.00 | 0.00 | 0.00 | 72 | 1012.4 |
| 20260905052633 | 80 | 97 | 3.0 | 5.0 | 0.00 | 0.00 | 0.00 | 72 | 1012.4 |
| 20260905052530 | 80 | 97 | 2.0 | 5.0 | 0.00 | 0.00 | 0.00 | 71 | 1012.4 |
| 20260905052449 | 80 | 96 | 3.0 | 5.0 | 0.00 | 0.00 | 0.00 | 71 | 1012.4 |
| 20260905052351 | 80 | 95 | 4.0 | 5.0 | 0.00 | 0.00 | 0.00 | 71 | 1012.4 |
| 20260905052229 | 80 | 96 | 3.0 | 5.0 | 0.00 | 0.00 | 0.00 | 71 | 1012.4 |
| 20260905052126 | 80 | 96 | 4.0 | 5.0 | 0.00 | 0.00 | 0.00 | 71 | 1012.4 |
| 20260905052024 | 80 | 95 | 4.0 | 5.0 | 0.00 | 0.00 | 0.00 | 71 | 1012.4 |
| 20260905051942 | 80 | 96 | 4.0 | 5.0 | 0.00 | 0.00 | 0.00 | 71 | 1012.4 |
| 20260905051901 | 80 | 96 | 3.0 | 5.0 | 0.00 | 0.00 | 0.00 | 71 | 1012.4 |
| 20260905051759 | 80 | 96 | 3.0 | 5.0 | 0.00 | 0.00 | 0.00 | 71 | 1012.4 |
| 20260905051646 | 80 | 96 | 3.0 | 6.0 | 0.00 | 0.00 | 0.00 | 71 | 1012.4 |
| 20260905051543 | 80 | 96 | 2.0 | 6.0 | 0.00 | 0.00 | 0.00 | 71 | 1012.4 |
| 20260905051445 | 80 | 97 | 3.0 | 6.0 | 0.00 | 0.00 | 0.00 | 72 | 1012.4 |
| 20260905051346 | 80 | 96 | 3.0 | 6.0 | 0.00 | 0.00 | 0.00 | 71 | 1012.4 |
| 20260905051224 | 80 | 96 | 4.0 | 6.0 | 0.00 | 0.00 | 0.00 | 71 | 1012.8 |
| 20260905051143 | 80 | 96 | 3.0 | 6.0 | 0.00 | 0.00 | 0.00 | 71 | 1012.8 |
| 20260905051041 | 80 | 95 | 4.0 | 6.0 | 0.00 | 0.00 | 0.00 | 71 | 1012.8 |
| 20260905050940 | 80 | 95 | 3.0 | 6.0 | 0.00 | 0.00 | 0.00 | 72 | 1012.8 |
| 20260905050839 | 80 | 93 | 3.0 | 6.0 | 0.00 | 0.00 | 0.00 | 72 | 1012.8 |
| 20260905050737 | 80 | 93 | 4.0 | 6.0 | 0.00 | 0.00 | 0.00 | 71 | 1012.8 |
| 20260905050639 | 80 | 90 | 4.0 | 6.0 | 0.00 | 0.00 | 0.00 | 71 | 1012.8 |
| 20260905050536 | 80 | 86 | 4.0 | 6.0 | 0.00 | 0.00 | 0.00 | 72 | 1012.8 |
| 20260905050435 | 80 | 86 | 4.0 | 6.0 | 0.00 | 0.00 | 0.00 | 71 | 1012.8 |
| 20260905050334 | 80 | 86 | 3.0 | 6.0 | 0.00 | 0.00 | 0.00 | 71 | 1012.8 |
| 20260905050243 | 80 | 86 | 5.0 | 6.0 | 0.00 | 0.00 | 0.00 | 71 | 1012.8 |
| 20260905050153 | 80 | 85 | 4.0 | 6.0 | 0.00 | 0.00 | 0.00 | 71 | 1012.8 |
| 20260905050030 | 80 | 80 | 5.0 | 6.0 | 0.00 | 0.00 | 0.00 | 71 | 1012.8 |
| 20260905045932 | 80 | 83 | 5.0 | 6.0 | 0.00 | 0.00 | 0.00 | 71 | 1012.8 |
| 20260905045831 | 80 | 83 | 5.0 | 6.0 | 0.00 | 0.00 | 0.00 | 71 | 1012.8 |
| 20260905045729 | 80 | 82 | 5.0 | 6.0 | 0.00 | 0.00 | 0.00 | 71 | 1012.8 |
| 20260905045627 | 80 | 78 | 4.0 | 6.0 | 0.00 | 0.00 | 0.00 | 71 | 1012.8 |
| 20260905045545 | 80 | 79 | 4.0 | 6.0 | 0.00 | 0.00 | 0.00 | 71 | 1012.8 |
| 20260905045503 | 80 | 79 | 4.0 | 6.0 | 0.00 | 0.00 | 0.00 | 71 | 1012.8 |
| 20260905045401 | 80 | 79 | 5.0 | 6.0 | 0.00 | 0.00 | 0.00 | 71 | 1012.8 |
| 20260905045237 | 80 | 79 | 4.0 | 6.0 | 0.00 | 0.00 | 0.00 | 71 | 1012.8 |
| 20260905045140 | 80 | 78 | 3.0 | 6.0 | 0.00 | 0.00 | 0.00 | 71 | 1012.8 |
| 20260905045039 | 80 | 78 | 3.0 | 6.0 | 0.00 | 0.00 | 0.00 | 71 | 1012.8 |
| 20260905044937 | 80 | 78 | 4.0 | 6.0 | 0.00 | 0.00 | 0.00 | 71 | 1012.8 |
| 20260905044836 | 80 | 78 | 4.0 | 6.0 | 0.00 | 0.00 | 0.00 | 71 | 1012.8 |
| 20260905044804 | 80 | 78 | 4.0 | 6.0 | 0.00 | 0.00 | 0.00 | 71 | 1012.8 |
| 20260905044651 | 80 | 78 | 5.0 | 7.0 | 0.00 | 0.00 | 0.00 | 71 | 1012.8 |
| 20260905044529 | 80 | 76 | 4.0 | 7.0 | 0.00 | 0.00 | 0.00 | 71 | 1012.8 |
| 20260905044432 | 80 | 76 | 4.0 | 7.0 | 0.00 | 0.00 | 0.00 | 71 | 1012.8 |
| 20260905044330 | 80 | 78 | 5.0 | 7.0 | 0.00 | 0.00 | 0.00 | 70 | 1012.8 |
| 20260905044226 | 80 | 78 | 3.0 | 7.0 | 0.00 | 0.00 | 0.00 | 70 | 1012.8 |
| 20260905044124 | 80 | 78 | 4.0 | 7.0 | 0.00 | 0.00 | 0.00 | 70 | 1012.8 |
| 20260905044042 | 80 | 75 | 3.0 | 7.0 | 0.00 | 0.00 | 0.00 | 70 | 1012.8 |
| 20260905044000 | 80 | 78 | 3.0 | 7.0 | 0.00 | 0.00 | 0.00 | 71 | 1012.8 |
| 20260905043837 | 80 | 76 | 4.0 | 7.0 | 0.00 | 0.00 | 0.00 | 71 | 1012.8 |
| 20260905043736 | 80 | 78 | 5.0 | 7.0 | 0.00 | 0.00 | 0.00 | 70 | 1012.8 |
| 20260905043640 | 80 | 76 | 3.0 | 6.0 | 0.00 | 0.00 | 0.00 | 71 | 1012.8 |
| 20260905043539 | 80 | 75 | 3.0 | 6.0 | 0.00 | 0.00 | 0.00 | 70 | 1012.8 |
| 20260905043438 | 80 | 75 | 5.0 | 6.0 | 0.00 | 0.00 | 0.00 | 70 | 1012.8 |
| 20260905043336 | 80 | 75 | 5.0 | 6.0 | 0.00 | 0.00 | 0.00 | 70 | 1012.8 |
| 20260905043254 | 80 | 73 | 4.0 | 6.0 | 0.00 | 0.00 | 0.00 | 70 | 1012.8 |
| 20260905043205 | 80 | 75 | 4.0 | 7.0 | 0.00 | 0.00 | 0.00 | 70 | 1012.8 |
| 20260905043041 | 80 | 69 | 5.0 | 7.0 | 0.00 | 0.00 | 0.00 | 70 | 1012.8 |
| 20260905043000 | 79 | 73 | 5.0 | 7.0 | 0.00 | 0.00 | 0.00 | 70 | 1012.8 |
| 20260905042841 | 79 | 72 | 4.0 | 7.0 | 0.00 | 0.00 | 0.00 | 70 | 1012.8 |
| 20260905042800 | 79 | 72 | 5.0 | 7.0 | 0.00 | 0.00 | 0.00 | 70 | 1012.8 |
| 20260905042642 | 79 | 71 | 5.0 | 7.0 | 0.00 | 0.00 | 0.00 | 70 | 1012.8 |
| 20260905042542 | 79 | 69 | 6.0 | 7.0 | 0.00 | 0.00 | 0.00 | 70 | 1012.8 |
| 20260905042440 | 79 | 71 | 5.0 | 7.0 | 0.00 | 0.00 | 0.00 | 70 | 1012.8 |
| 20260905042338 | 79 | 71 | 6.0 | 7.0 | 0.00 | 0.00 | 0.00 | 70 | 1012.8 |
| 20260905042236 | 80 | 71 | 5.0 | 6.0 | 0.00 | 0.00 | 0.00 | 70 | 1012.8 |
| 20260905042139 | 80 | 71 | 5.0 | 6.0 | 0.00 | 0.00 | 0.00 | 69 | 1012.8 |
| 20260905042037 | 80 | 71 | 4.0 | 6.0 | 0.00 | 0.00 | 0.00 | 69 | 1012.8 |
| 20260905041935 | 80 | 71 | 4.0 | 6.0 | 0.00 | 0.00 | 0.00 | 70 | 1012.8 |
| 20260905041832 | 80 | 71 | 4.0 | 6.0 | 0.00 | 0.00 | 0.00 | 70 | 1012.8 |
| 20260905041741 | 80 | 71 | 5.0 | 6.0 | 0.00 | 0.00 | 0.00 | 71 | 1012.8 |
| 20260905041649 | 80 | 69 | 6.0 | 6.0 | 0.00 | 0.00 | 0.00 | 71 | 1012.8 |
| 20260905041526 | 80 | 71 | 6.0 | 6.0 | 0.00 | 0.00 | 0.00 | 71 | 1012.8 |
| 20260905041424 | 80 | 69 | 4.0 | 6.0 | 0.00 | 0.00 | 0.00 | 71 | 1012.8 |
| 20260905041346 | 80 | 69 | 5.0 | 6.0 | 0.00 | 0.00 | 0.00 | 70 | 1012.8 |
| 20260905041305 | 80 | 68 | 6.0 | 6.0 | 0.00 | 0.00 | 0.00 | 70 | 1012.9 |
| 20260905041141 | 80 | 69 | 5.0 | 6.0 | 0.00 | 0.00 | 0.00 | 70 | 1012.9 |
| 20260905041101 | 80 | 69 | 5.0 | 6.0 | 0.00 | 0.00 | 0.00 | 70 | 1012.9 |
| 20260905040938 | 80 | 71 | 6.0 | 6.0 | 0.00 | 0.00 | 0.00 | 70 | 1012.9 |
| 20260905040856 | 80 | 71 | 5.0 | 6.0 | 0.00 | 0.00 | 0.00 | 70 | 1012.9 |
| 20260905040734 | 80 | 69 | 5.0 | 6.0 | 0.00 | 0.00 | 0.00 | 69 | 1012.9 |
| 20260905040652 | 80 | 69 | 5.0 | 6.0 | 0.00 | 0.00 | 0.00 | 69 | 1012.9 |
| 20260905040528 | 80 | 69 | 5.0 | 6.0 | 0.00 | 0.00 | 0.00 | 69 | 1012.9 |
| 20260905040425 | 80 | 69 | 5.0 | 6.0 | 0.00 | 0.00 | 0.00 | 69 | 1012.9 |
| 20260905040347 | 80 | 66 | 5.0 | 6.0 | 0.00 | 0.00 | 0.00 | 70 | 1012.9 |
| 20260905040244 | 80 | 68 | 5.0 | 6.0 | 0.00 | 0.00 | 0.00 | 70 | 1012.9 |
| 20260905040155 | 80 | 69 | 5.0 | 6.0 | 0.00 | 0.00 | 0.00 | 70 | 1012.9 |